Wetterdaten: Freitag, 28.08.2020
Datum Zeit Temp. Aussen Temp. o. S. Temp +5cm Feuchte Auss Luftdruck Regen Sonnenschein Regendauer Solar Windben Empfang
28.08.2020 00:00 17,0 C 14,4 C 14,4 C 88 % 1006,8 hPa 0,0 l/m 0 min 0 min 0 W/m 0,0 km/h (0 Bft) 100,00 %
28.08.2020 00:02 17,0 C 14,4 C 14,4 C 88 % 1006,7 hPa 0,0 l/m 0 min 0 min 0 W/m 0,0 km/h (0 Bft) 12,50 %
28.08.2020 00:04 16,9 C 14,4 C 14,4 C 88 % 1006,7 hPa 0,0 l/m 0 min 0 min 0 W/m 0,0 km/h (0 Bft) 82,93 %
28.08.2020 00:08 16,9 C 14,4 C 14,4 C 89 % 1006,5 hPa 0,0 l/m 0 min 0 min 0 W/m 0,0 km/h (0 Bft) 96,81 %
28.08.2020 00:10 16,9 C 14,4 C 14,4 C 89 % 1006,5 hPa 0,0 l/m 0 min 0 min 0 W/m 0,0 km/h (0 Bft) 97,87 %
28.08.2020 00:12 16,9 C 14,4 C 14,4 C 89 % 1006,3 hPa 0,0 l/m 0 min 0 min 0 W/m 0,0 km/h (0 Bft) 95,74 %
28.08.2020 00:14 16,9 C 14,4 C 14,4 C 89 % 1006,3 hPa 0,0 l/m 0 min 0 min 0 W/m 0,0 km/h (0 Bft) 97,83 %
28.08.2020 00:16 16,8 C 14,4 C 14,4 C 89 % 1006,3 hPa 0,0 l/m 0 min 0 min 0 W/m 0,0 km/h (0 Bft) 97,87 %
28.08.2020 00:18 16,8 C 14,4 C 14,4 C 89 % 1006,2 hPa 0,0 l/m 0 min 0 min 0 W/m 0,0 km/h (0 Bft) 97,87 %
28.08.2020 00:20 16,8 C 14,4 C 14,4 C 90 % 1006,1 hPa 0,0 l/m 0 min 0 min 0 W/m 0,0 km/h (0 Bft) 97,87 %
28.08.2020 00:22 16,8 C 14,4 C 14,4 C 90 % 1006,0 hPa 0,0 l/m 0 min 0 min 0 W/m 0,0 km/h (0 Bft) 95,74 %
28.08.2020 00:24 16,8 C 14,4 C 14,4 C 90 % 1006,0 hPa 0,0 l/m 0 min 0 min 0 W/m 0,0 km/h (0 Bft) 97,87 %
28.08.2020 00:26 16,7 C 14,4 C 14,4 C 90 % 1006,0 hPa 0,0 l/m 0 min 0 min 0 W/m 0,0 km/h (0 Bft) 97,83 %
28.08.2020 00:28 16,7 C 14,4 C 14,4 C 90 % 1005,9 hPa 0,0 l/m 0 min 0 min 0 W/m 0,0 km/h (0 Bft) 97,87 %
28.08.2020 00:30 16,7 C 14,4 C 15,0 C 90 % 1005,9 hPa 0,0 l/m 0 min 0 min 0 W/m 0,0 km/h (0 Bft) 97,87 %
28.08.2020 00:32 16,7 C 14,4 C 15,0 C 91 % 1005,9 hPa 0,0 l/m 0 min 0 min 0 W/m 0,0 km/h (0 Bft) 97,87 %
28.08.2020 00:34 16,7 C 14,4 C 15,0 C 91 % 1005,8 hPa 0,0 l/m 0 min 0 min 0 W/m 0,0 km/h (0 Bft) 95,74 %
28.08.2020 00:36 16,7 C 14,4 C 14,4 C 91 % 1005,8 hPa 0,0 l/m 0 min 0 min 0 W/m 0,0 km/h (0 Bft) 97,83 %
28.08.2020 00:38 16,6 C 14,4 C 15,0 C 91 % 1005,8 hPa 0,0 l/m 0 min 2 min 0 W/m 0,0 km/h (0 Bft) 97,87 %
28.08.2020 00:40 16,6 C 14,4 C 15,0 C 91 % 1005,7 hPa 0,0 l/m 0 min 2 min 0 W/m 0,0 km/h (0 Bft) 97,87 %
28.08.2020 00:42 16,6 C 14,4 C 14,4 C 91 % 1005,7 hPa 0,0 l/m 0 min 2 min 0 W/m 0,0 km/h (0 Bft) 100,00 %
28.08.2020 00:44 16,6 C 14,4 C 14,4 C 91 % 1005,7 hPa 0,0 l/m 0 min 0 min 0 W/m 0,0 km/h (0 Bft) 100,00 %
28.08.2020 00:46 16,6 C 14,4 C 14,4 C 91 % 1005,6 hPa 0,0 l/m 0 min 0 min 0 W/m 0,0 km/h (0 Bft) 100,00 %
28.08.2020 00:48 16,6 C 14,4 C 14,4 C 91 % 1005,5 hPa 0,0 l/m 0 min 2 min 0 W/m 3,2 km/h (1 Bft) 100,00 %
28.08.2020 00:50 16,6 C 14,4 C 14,4 C 92 % 1005,4 hPa 0,0 l/m 0 min 2 min 0 W/m 3,2 km/h (1 Bft) 100,00 %
28.08.2020 00:52 16,5 C 14,4 C 14,4 C 92 % 1005,3 hPa 0,0 l/m 0 min 0 min 0 W/m 0,0 km/h (0 Bft) 100,00 %
28.08.2020 00:54 16,5 C 14,4 C 14,4 C 92 % 1005,4 hPa 0,0 l/m 0 min 0 min 0 W/m 0,0 km/h (0 Bft) 100,00 %
28.08.2020 00:56 16,5 C 14,4 C 14,4 C 92 % 1005,3 hPa 0,0 l/m 0 min 0 min 0 W/m 12,9 km/h (3 Bft) 100,00 %
28.08.2020 00:58 16,4 C 14,4 C 14,4 C 92 % 1005,2 hPa 0,0 l/m 0 min 0 min 0 W/m 3,2 km/h (1 Bft) 100,00 %
28.08.2020 01:00 16,4 C 14,4 C 14,4 C 92 % 1005,2 hPa 0,0 l/m 0 min 0 min 0 W/m 6,4 km/h (2 Bft) 100,00 %
28.08.2020 01:02 16,4 C 14,4 C 14,4 C 92 % 1005,2 hPa 0,0 l/m 0 min 0 min 0 W/m 6,4 km/h (2 Bft) 100,00 %
28.08.2020 01:04 16,4 C 15,0 C 14,4 C 92 % 1005,1 hPa 0,0 l/m 0 min 0 min 0 W/m 16,1 km/h (3 Bft) 95,74 %
28.08.2020 01:06 16,4 C 15,0 C 14,4 C 92 % 1005,0 hPa 0,0 l/m 0 min 2 min 0 W/m 16,1 km/h (3 Bft) 97,87 %
28.08.2020 01:08 16,3 C 15,0 C 14,4 C 92 % 1005,0 hPa 0,0 l/m 0 min 0 min 0 W/m 12,9 km/h (3 Bft) 100,00 %
28.08.2020 01:10 16,3 C 15,0 C 15,0 C 92 % 1005,0 hPa 0,0 l/m 0 min 0 min 0 W/m 12,9 km/h (3 Bft) 100,00 %
28.08.2020 01:12 16,3 C 15,0 C 15,0 C 92 % 1005,0 hPa 0,0 l/m 0 min 0 min 0 W/m 22,5 km/h (4 Bft) 100,00 %
28.08.2020 01:14 16,3 C 15,0 C 15,0 C 91 % 1005,0 hPa 0,0 l/m 0 min 0 min 0 W/m 16,1 km/h (3 Bft) 97,87 %
28.08.2020 01:16 16,4 C 15,0 C 14,4 C 91 % 1005,0 hPa 0,0 l/m 0 min 0 min 0 W/m 16,1 km/h (3 Bft) 100,00 %
28.08.2020 01:18 16,4 C 15,0 C 14,4 C 91 % 1004,9 hPa 0,0 l/m 0 min 0 min 0 W/m 16,1 km/h (3 Bft) 100,00 %
28.08.2020 01:20 16,4 C 15,0 C 14,4 C 91 % 1004,9 hPa 0,0 l/m 0 min 0 min 0 W/m 12,9 km/h (3 Bft) 100,00 %
28.08.2020 01:22 16,4 C 15,0 C 15,0 C 91 % 1004,9 hPa 0,0 l/m 0 min 0 min 0 W/m 19,3 km/h (3 Bft) 100,00 %
28.08.2020 01:24 16,5 C 15,0 C 14,4 C 91 % 1004,9 hPa 0,0 l/m 0 min 0 min 0 W/m 12,9 km/h (3 Bft) 100,00 %
28.08.2020 01:26 16,5 C 15,0 C 14,4 C 91 % 1004,9 hPa 0,0 l/m 0 min 0 min 0 W/m 19,3 km/h (3 Bft) 100,00 %
28.08.2020 01:28 16,5 C 15,0 C 14,4 C 90 % 1004,8 hPa 0,0 l/m 0 min 0 min 0 W/m 12,9 km/h (3 Bft) 100,00 %
28.08.2020 01:30 16,6 C 15,0 C 15,0 C 90 % 1004,8 hPa 0,2 l/m 0 min 0 min 0 W/m 22,5 km/h (4 Bft) 97,87 %
28.08.2020 01:32 16,6 C 15,0 C 14,4 C 90 % 1004,8 hPa 0,0 l/m 0 min 0 min 0 W/m 16,1 km/h (3 Bft) 100,00 %
28.08.2020 01:34 16,6 C 15,0 C 14,4 C 90 % 1004,8 hPa 0,0 l/m 0 min 0 min 0 W/m 16,1 km/h (3 Bft) 100,00 %
28.08.2020 01:36 16,6 C 15,0 C 14,4 C 90 % 1004,8 hPa 0,0 l/m 0 min 0 min 0 W/m 6,4 km/h (2 Bft) 100,00 %
28.08.2020 01:38 16,6 C 15,0 C 14,4 C 90 % 1004,7 hPa 0,0 l/m 0 min 0 min 0 W/m 12,9 km/h (3 Bft) 95,74 %
28.08.2020 01:40 16,6 C 15,0 C 14,4 C 90 % 1004,7 hPa 0,0 l/m 0 min 0 min 0 W/m 16,1 km/h (3 Bft) 97,87 %
28.08.2020 01:42 16,6 C 15,0 C 14,4 C 90 % 1004,7 hPa 0,0 l/m 0 min 0 min 0 W/m 16,1 km/h (3 Bft) 97,87 %
28.08.2020 01:44 16,6 C 15,0 C 14,4 C 90 % 1004,7 hPa 0,0 l/m 0 min 0 min 0 W/m 12,9 km/h (3 Bft) 97,87 %
28.08.2020 01:46 16,6 C 15,0 C 14,4 C 90 % 1004,7 hPa 0,0 l/m 0 min 0 min 0 W/m 12,9 km/h (3 Bft) 97,87 %
28.08.2020 01:48 16,6 C 15,0 C 15,0 C 90 % 1004,7 hPa 0,0 l/m 0 min 0 min 0 W/m 19,3 km/h (3 Bft) 100,00 %
28.08.2020 01:50 16,6 C 15,0 C 14,4 C 90 % 1004,6 hPa 0,0 l/m 0 min 0 min 0 W/m 16,1 km/h (3 Bft) 97,87 %
28.08.2020 01:52 16,6 C 15,0 C 14,4 C 90 % 1004,5 hPa 0,0 l/m 0 min 0 min 0 W/m 16,1 km/h (3 Bft) 97,87 %
28.08.2020 01:54 16,7 C 15,0 C 14,4 C 90 % 1004,4 hPa 0,0 l/m 0 min 0 min 0 W/m 12,9 km/h (3 Bft) 93,62 %
28.08.2020 01:56 16,6 C 15,0 C 15,0 C 90 % 1004,3 hPa 0,0 l/m 0 min 0 min 0 W/m 16,1 km/h (3 Bft) 97,87 %
28.08.2020 01:58 16,6 C 15,0 C 15,0 C 90 % 1004,4 hPa 0,0 l/m 0 min 0 min 0 W/m 22,5 km/h (4 Bft) 95,74 %
28.08.2020 02:00 16,6 C 15,0 C 14,4 C 90 % 1004,4 hPa 0,0 l/m 0 min 0 min 0 W/m 22,5 km/h (4 Bft) 95,65 %
28.08.2020 02:02 16,6 C 15,0 C 14,4 C 90 % 1004,5 hPa 0,0 l/m 0 min 0 min 0 W/m 12,9 km/h (3 Bft) 93,62 %
28.08.2020 02:04 16,6 C 15,0 C 14,4 C 91 % 1004,5 hPa 0,0 l/m 0 min 0 min 0 W/m 22,5 km/h (4 Bft) 95,74 %
28.08.2020 02:06 16,6 C 15,0 C 14,4 C 91 % 1004,5 hPa 0,0 l/m 0 min 0 min 0 W/m 16,1 km/h (3 Bft) 91,49 %
28.08.2020 02:08 16,6 C 15,0 C 14,4 C 91 % 1004,5 hPa 0,0 l/m 0 min 0 min 0 W/m 6,4 km/h (2 Bft) 95,74 %
28.08.2020 02:10 16,6 C 15,0 C 14,4 C 91 % 1004,4 hPa 0,0 l/m 0 min 0 min 0 W/m 16,1 km/h (3 Bft) 95,74 %
28.08.2020 02:12 16,6 C 15,0 C 14,4 C 91 % 1004,4 hPa 0,0 l/m 0 min 0 min 0 W/m 16,1 km/h (3 Bft) 93,62 %
28.08.2020 02:14 16,6 C 15,0 C 14,4 C 90 % 1004,3 hPa 0,0 l/m 0 min 0 min 0 W/m 16,1 km/h (3 Bft) 95,74 %
28.08.2020 02:16 16,6 C 15,0 C 14,4 C 90 % 1004,3 hPa 0,0 l/m 0 min 0 min 0 W/m 16,1 km/h (3 Bft) 93,62 %
28.08.2020 02:18 16,6 C 15,0 C 14,4 C 91 % 1004,2 hPa 0,0 l/m 0 min 0 min 0 W/m 12,9 km/h (3 Bft) 91,49 %
28.08.2020 02:20 16,6 C 15,0 C 14,4 C 91 % 1004,3 hPa 0,0 l/m 0 min 0 min 0 W/m 16,1 km/h (3 Bft) 95,74 %
28.08.2020 02:22 16,5 C 15,0 C 14,4 C 91 % 1004,1 hPa 0,0 l/m 0 min 0 min 0 W/m 12,9 km/h (3 Bft) 93,48 %
28.08.2020 02:24 16,5 C 15,0 C 14,4 C 91 % 1004,1 hPa 0,0 l/m 0 min 0 min 0 W/m 12,9 km/h (3 Bft) 95,74 %
28.08.2020 02:26 16,5 C 15,0 C 14,4 C 91 % 1004,1 hPa 0,0 l/m 0 min 0 min 0 W/m 12,9 km/h (3 Bft) 93,62 %
28.08.2020 02:28 16,5 C 15,0 C 14,4 C 91 % 1004,1 hPa 0,0 l/m 0 min 0 min 0 W/m 12,9 km/h (3 Bft) 93,62 %
28.08.2020 02:30 16,4 C 15,0 C 14,4 C 91 % 1004,1 hPa 0,0 l/m 0 min 0 min 0 W/m 16,1 km/h (3 Bft) 93,62 %
28.08.2020 02:32 16,4 C 15,0 C 14,4 C 91 % 1004,1 hPa 0,0 l/m 0 min 0 min 0 W/m 12,9 km/h (3 Bft) 89,36 %
28.08.2020 02:34 16,4 C 15,0 C 14,4 C 91 % 1004,1 hPa 0,0 l/m 0 min 0 min 0 W/m 22,5 km/h (4 Bft) 93,48 %
28.08.2020 02:36 16,4 C 15,0 C 14,4 C 91 % 1004,1 hPa 0,0 l/m 0 min 0 min 0 W/m 19,3 km/h (3 Bft) 93,62 %
28.08.2020 02:38 16,4 C 15,0 C 14,4 C 91 % 1004,0 hPa 0,0 l/m 0 min 0 min 0 W/m 12,9 km/h (3 Bft) 93,62 %
28.08.2020 02:40 16,4 C 15,0 C 14,4 C 91 % 1004,0 hPa 0,0 l/m 0 min 0 min 0 W/m 16,1 km/h (3 Bft) 93,62 %
28.08.2020 02:42 16,4 C 15,0 C 14,4 C 91 % 1004,0 hPa 0,0 l/m 0 min 0 min 0 W/m 12,9 km/h (3 Bft) 91,49 %
28.08.2020 02:44 16,4 C 15,0 C 14,4 C 91 % 1004,0 hPa 0,0 l/m 0 min 0 min 0 W/m 19,3 km/h (3 Bft) 93,62 %
28.08.2020 02:46 16,4 C 15,0 C 15,0 C 91 % 1004,0 hPa 0,0 l/m 0 min 0 min 0 W/m 25,7 km/h (4 Bft) 93,48 %
28.08.2020 02:48 16,4 C 15,0 C 14,4 C 91 % 1003,9 hPa 0,0 l/m 0 min 0 min 0 W/m 12,9 km/h (3 Bft) 93,62 %
28.08.2020 02:50 16,4 C 15,0 C 14,4 C 91 % 1003,9 hPa 0,0 l/m 0 min 0 min 0 W/m 12,9 km/h (3 Bft) 91,49 %
28.08.2020 02:52 16,4 C 15,0 C 14,4 C 91 % 1003,9 hPa 0,0 l/m 0 min 0 min 0 W/m 12,9 km/h (3 Bft) 95,74 %
28.08.2020 02:54 16,4 C 15,0 C 14,4 C 91 % 1003,9 hPa 0,0 l/m 0 min 0 min 0 W/m 12,9 km/h (3 Bft) 93,62 %
28.08.2020 02:56 16,4 C 15,0 C 14,4 C 91 % 1004,0 hPa 0,0 l/m 0 min 0 min 0 W/m 19,3 km/h (3 Bft) 97,87 %
28.08.2020 02:58 16,4 C 15,0 C 14,4 C 91 % 1003,9 hPa 0,0 l/m 0 min 0 min 0 W/m 16,1 km/h (3 Bft) 97,83 %
28.08.2020 03:00 16,4 C 15,0 C 14,4 C 91 % 1003,9 hPa 0,0 l/m 0 min 0 min 0 W/m 16,1 km/h (3 Bft) 93,62 %
28.08.2020 03:02 16,4 C 15,0 C 14,4 C 91 % 1004,0 hPa 0,0 l/m 0 min 0 min 0 W/m 12,9 km/h (3 Bft) 97,87 %
28.08.2020 03:04 16,4 C 15,0 C 14,4 C 91 % 1003,9 hPa 0,0 l/m 0 min 0 min 0 W/m 12,9 km/h (3 Bft) 95,74 %
28.08.2020 03:06 16,4 C 15,0 C 14,4 C 92 % 1003,9 hPa 0,0 l/m 0 min 0 min 0 W/m 12,9 km/h (3 Bft) 95,74 %
28.08.2020 03:08 16,4 C 15,0 C 14,4 C 91 % 1003,9 hPa 0,0 l/m 0 min 0 min 0 W/m 16,1 km/h (3 Bft) 97,87 %
28.08.2020 03:10 16,3 C 15,0 C 14,4 C 92 % 1003,9 hPa 0,0 l/m 0 min 0 min 0 W/m 12,9 km/h (3 Bft) 97,83 %
28.08.2020 03:12 16,3 C 15,0 C 14,4 C 91 % 1003,8 hPa 0,0 l/m 0 min 0 min 0 W/m 6,4 km/h (2 Bft) 100,00 %
28.08.2020 03:14 16,3 C 15,0 C 14,4 C 91 % 1003,8 hPa 0,0 l/m 0 min 0 min 0 W/m 12,9 km/h (3 Bft) 97,87 %
28.08.2020 03:16 16,3 C 15,0 C 14,4 C 92 % 1003,8 hPa 0,0 l/m 0 min 0 min 0 W/m 6,4 km/h (2 Bft) 100,00 %
28.08.2020 03:18 16,3 C 15,0 C 14,4 C 92 % 1003,8 hPa 0,0 l/m 0 min 0 min 0 W/m 3,2 km/h (1 Bft) 97,87 %
28.08.2020 03:20 16,3 C 15,0 C 14,4 C 92 % 1003,7 hPa 0,0 l/m 0 min 0 min 0 W/m 6,4 km/h (2 Bft) 95,74 %
28.08.2020 03:22 16,3 C 15,0 C 14,4 C 92 % 1003,7 hPa 0,0 l/m 0 min 0 min 0 W/m 6,4 km/h (2 Bft) 100,00 %
28.08.2020 03:24 16,3 C 15,0 C 14,4 C 92 % 1003,7 hPa 0,0 l/m 0 min 0 min 0 W/m 6,4 km/h (2 Bft) 100,00 %
28.08.2020 03:26 16,3 C 15,0 C 14,4 C 92 % 1003,7 hPa 0,0 l/m 0 min 0 min 0 W/m 6,4 km/h (2 Bft) 100,00 %
28.08.2020 03:28 16,3 C 15,0 C 14,4 C 92 % 1003,7 hPa 0,0 l/m 0 min 0 min 0 W/m 6,4 km/h (2 Bft) 100,00 %
28.08.2020 03:30 16,3 C 15,0 C 14,4 C 92 % 1003,7 hPa 0,0 l/m 0 min 0 min 0 W/m 3,2 km/h (1 Bft) 100,00 %
28.08.2020 03:32 16,3 C 15,0 C 14,4 C 92 % 1003,7 hPa 0,0 l/m 0 min 0 min 0 W/m 0,0 km/h (0 Bft) 100,00 %
28.08.2020 03:34 16,3 C 15,0 C 14,4 C 92 % 1003,7 hPa 0,0 l/m 0 min 0 min 0 W/m 12,9 km/h (3 Bft) 97,87 %
28.08.2020 03:36 16,3 C 15,0 C 14,4 C 92 % 1003,6 hPa 0,0 l/m 0 min 0 min 0 W/m 9,7 km/h (2 Bft) 97,83 %
28.08.2020 03:38 16,3 C 15,0 C 14,4 C 92 % 1003,7 hPa 0,0 l/m 0 min 0 min 0 W/m 3,2 km/h (1 Bft) 100,00 %
28.08.2020 03:40 16,3 C 15,0 C 14,4 C 92 % 1003,7 hPa 0,0 l/m 0 min 0 min 0 W/m 9,7 km/h (2 Bft) 100,00 %
28.08.2020 03:42 16,2 C 15,0 C 14,4 C 92 % 1003,6 hPa 0,0 l/m 0 min 0 min 0 W/m 3,2 km/h (1 Bft) 100,00 %
28.08.2020 03:44 16,3 C 15,0 C 14,4 C 92 % 1003,6 hPa 0,0 l/m 0 min 0 min 0 W/m 16,1 km/h (3 Bft) 100,00 %
28.08.2020 03:46 16,2 C 15,0 C 14,4 C 92 % 1003,6 hPa 0,0 l/m 0 min 0 min 0 W/m 12,9 km/h (3 Bft) 100,00 %
28.08.2020 03:48 16,2 C 15,0 C 14,4 C 92 % 1003,6 hPa 0,0 l/m 0 min 0 min 0 W/m 3,2 km/h (1 Bft) 100,00 %
28.08.2020 03:50 16,2 C 15,0 C 14,4 C 92 % 1003,6 hPa 0,0 l/m 0 min 0 min 0 W/m 3,2 km/h (1 Bft) 100,00 %
28.08.2020 03:52 16,2 C 15,0 C 14,4 C 92 % 1003,5 hPa 0,0 l/m 0 min 0 min 0 W/m 0,0 km/h (0 Bft) 100,00 %
28.08.2020 03:54 16,2 C 15,0 C 14,4 C 93 % 1003,4 hPa 0,0 l/m 0 min 0 min 0 W/m 0,0 km/h (0 Bft) 100,00 %
28.08.2020 03:56 16,2 C 15,0 C 14,4 C 93 % 1003,4 hPa 0,0 l/m 0 min 0 min 0 W/m 12,9 km/h (3 Bft) 97,87 %
28.08.2020 03:58 16,2 C 15,0 C 14,4 C 93 % 1003,4 hPa 0,0 l/m 0 min 0 min 0 W/m 12,9 km/h (3 Bft) 100,00 %
28.08.2020 04:00 16,2 C 15,0 C 14,4 C 93 % 1003,5 hPa 0,0 l/m 0 min 0 min 0 W/m 3,2 km/h (1 Bft) 100,00 %
28.08.2020 04:02 16,2 C 15,0 C 14,4 C 93 % 1003,5 hPa 0,0 l/m 0 min 0 min 0 W/m 12,9 km/h (3 Bft) 95,24 %
28.08.2020 04:04 16,2 C 15,0 C 14,4 C 93 % 1003,5 hPa 0,0 l/m 0 min 0 min 0 W/m 6,4 km/h (2 Bft) 100,00 %
28.08.2020 04:06 16,2 C 15,0 C 14,4 C 93 % 1003,5 hPa 0,0 l/m 0 min 0 min 0 W/m 3,2 km/h (1 Bft) 97,87 %
28.08.2020 04:08 16,2 C 15,0 C 14,4 C 93 % 1003,4 hPa 0,0 l/m 0 min 0 min 0 W/m 3,2 km/h (1 Bft) 100,00 %
28.08.2020 04:10 16,2 C 15,0 C 14,4 C 93 % 1003,5 hPa 0,0 l/m 0 min 0 min 0 W/m 6,4 km/h (2 Bft) 100,00 %
28.08.2020 04:12 16,2 C 15,0 C 14,4 C 93 % 1003,5 hPa 0,0 l/m 0 min 0 min 0 W/m 6,4 km/h (2 Bft) 100,00 %
28.08.2020 04:14 16,2 C 15,0 C 14,4 C 93 % 1003,5 hPa 0,0 l/m 0 min 0 min 0 W/m 3,2 km/h (1 Bft) 100,00 %
28.08.2020 04:16 16,2 C 15,0 C 14,4 C 93 % 1003,5 hPa 0,0 l/m 0 min 0 min 0 W/m 6,4 km/h (2 Bft) 100,00 %
28.08.2020 04:18 16,2 C 15,0 C 14,4 C 93 % 1003,4 hPa 0,0 l/m 0 min 0 min 0 W/m 3,2 km/h (1 Bft) 100,00 %
28.08.2020 04:20 16,2 C 15,0 C 14,4 C 93 % 1003,4 hPa 0,0 l/m 0 min 0 min 0 W/m 6,4 km/h (2 Bft) 100,00 %
28.08.2020 04:22 16,1 C 15,0 C 14,4 C 93 % 1003,4 hPa 0,0 l/m 0 min 0 min 0 W/m 6,4 km/h (2 Bft) 100,00 %
28.08.2020 04:24 16,2 C 15,6 C 14,4 C 93 % 1003,4 hPa 0,0 l/m 0 min 0 min 0 W/m 12,9 km/h (3 Bft) 100,00 %
28.08.2020 04:26 16,2 C 15,6 C 14,4 C 93 % 1003,3 hPa 0,0 l/m 0 min 0 min 0 W/m 6,4 km/h (2 Bft) 100,00 %
28.08.2020 04:28 16,2 C 15,6 C 14,4 C 93 % 1003,4 hPa 0,0 l/m 0 min 0 min 0 W/m 6,4 km/h (2 Bft) 100,00 %
28.08.2020 04:30 16,2 C 15,6 C 15,0 C 93 % 1003,4 hPa 0,0 l/m 0 min 0 min 0 W/m 6,4 km/h (2 Bft) 100,00 %
28.08.2020 04:32 16,2 C 15,6 C 15,0 C 93 % 1003,4 hPa 0,0 l/m 0 min 0 min 0 W/m 12,9 km/h (3 Bft) 100,00 %
28.08.2020 04:34 16,2 C 15,6 C 15,0 C 93 % 1003,4 hPa 0,0 l/m 0 min 0 min 0 W/m 16,1 km/h (3 Bft) 100,00 %
28.08.2020 04:36 16,2 C 15,6 C 15,0 C 93 % 1003,4 hPa 0,0 l/m 0 min 0 min 0 W/m 3,2 km/h (1 Bft) 100,00 %
28.08.2020 04:38 16,2 C 15,6 C 15,0 C 94 % 1003,4 hPa 0,0 l/m 0 min 0 min 0 W/m 12,9 km/h (3 Bft) 100,00 %
28.08.2020 04:40 16,2 C 15,6 C 15,0 C 94 % 1003,3 hPa 0,0 l/m 0 min 0 min 0 W/m 12,9 km/h (3 Bft) 100,00 %
28.08.2020 04:42 16,2 C 15,6 C 15,0 C 94 % 1003,4 hPa 0,0 l/m 0 min 0 min 0 W/m 12,9 km/h (3 Bft) 100,00 %
28.08.2020 04:44 16,2 C 15,6 C 15,0 C 94 % 1003,4 hPa 0,0 l/m 0 min 0 min 0 W/m 6,4 km/h (2 Bft) 97,83 %
28.08.2020 04:46 16,2 C 15,6 C 15,0 C 94 % 1003,3 hPa 0,0 l/m 0 min 0 min 0 W/m 6,4 km/h (2 Bft) 100,00 %
28.08.2020 04:48 16,2 C 15,6 C 15,0 C 94 % 1003,3 hPa 0,0 l/m 0 min 0 min 0 W/m 12,9 km/h (3 Bft) 97,87 %
28.08.2020 04:50 16,2 C 15,6 C 15,0 C 94 % 1003,3 hPa 0,0 l/m 0 min 0 min 0 W/m 3,2 km/h (1 Bft) 97,87 %
28.08.2020 04:52 16,2 C 15,6 C 15,0 C 94 % 1003,3 hPa 0,0 l/m 0 min 0 min 0 W/m 9,7 km/h (2 Bft) 100,00 %
28.08.2020 04:54 16,3 C 15,6 C 15,0 C 94 % 1003,3 hPa 0,0 l/m 0 min 0 min 0 W/m 3,2 km/h (1 Bft) 95,74 %
28.08.2020 04:56 16,3 C 15,6 C 15,0 C 94 % 1003,3 hPa 0,0 l/m 0 min 0 min 0 W/m 6,4 km/h (2 Bft) 95,65 %
28.08.2020 04:58 16,3 C 15,6 C 15,0 C 94 % 1003,3 hPa 0,0 l/m 0 min 0 min 0 W/m 3,2 km/h (1 Bft) 95,74 %
28.08.2020 05:00 16,3 C 15,6 C 15,0 C 94 % 1003,3 hPa 0,0 l/m 0 min 0 min 0 W/m 12,9 km/h (3 Bft) 95,74 %
28.08.2020 05:02 16,3 C 16,1 C 15,0 C 94 % 1003,3 hPa 0,0 l/m 0 min 0 min 0 W/m 22,5 km/h (4 Bft) 95,74 %
28.08.2020 05:04 16,3 C 16,1 C 15,6 C 94 % 1003,3 hPa 0,0 l/m 0 min 0 min 0 W/m 19,3 km/h (3 Bft) 97,73 %
28.08.2020 05:06 16,3 C 16,1 C 15,6 C 94 % 1003,3 hPa 0,0 l/m 0 min 0 min 0 W/m 12,9 km/h (3 Bft) 95,65 %
28.08.2020 05:08 16,3 C 16,1 C 15,0 C 94 % 1003,3 hPa 0,0 l/m 0 min 0 min 0 W/m 16,1 km/h (3 Bft) 95,74 %
28.08.2020 05:10 16,3 C 16,1 C 15,6 C 94 % 1003,3 hPa 0,0 l/m 0 min 0 min 0 W/m 16,1 km/h (3 Bft) 93,62 %
28.08.2020 05:12 16,4 C 16,1 C 15,6 C 93 % 1003,4 hPa 0,0 l/m 0 min 0 min 0 W/m 19,3 km/h (3 Bft) 93,62 %
28.08.2020 05:14 16,4 C 16,1 C 15,6 C 93 % 1003,4 hPa 0,0 l/m 0 min 0 min 0 W/m 22,5 km/h (4 Bft) 93,62 %
28.08.2020 05:16 16,4 C 16,1 C 15,6 C 93 % 1003,3 hPa 0,0 l/m 0 min 0 min 0 W/m 22,5 km/h (4 Bft) 93,48 %
28.08.2020 05:18 16,4 C 16,1 C 15,6 C 93 % 1003,4 hPa 0,0 l/m 0 min 0 min 0 W/m 29,0 km/h (5 Bft) 93,62 %
28.08.2020 05:20 16,5 C 16,1 C 15,6 C 92 % 1003,4 hPa 0,0 l/m 0 min 0 min 0 W/m 16,1 km/h (3 Bft) 96,23 %
28.08.2020 05:22 16,5 C 16,1 C 15,6 C 92 % 1003,4 hPa 0,0 l/m 0 min 0 min 0 W/m 16,1 km/h (3 Bft) 95,74 %
28.08.2020 05:24 16,6 C 16,1 C 15,6 C 92 % 1003,3 hPa 0,0 l/m 0 min 0 min 0 W/m 22,5 km/h (4 Bft) 95,74 %
28.08.2020 05:26 16,6 C 16,1 C 15,6 C 92 % 1003,3 hPa 0,0 l/m 0 min 0 min 0 W/m 22,5 km/h (4 Bft) 95,74 %
28.08.2020 05:28 16,6 C 16,1 C 15,6 C 91 % 1003,3 hPa 0,0 l/m 0 min 0 min 0 W/m 25,7 km/h (4 Bft) 93,62 %
28.08.2020 05:30 16,6 C 16,1 C 15,6 C 91 % 1003,3 hPa 0,0 l/m 0 min 0 min 0 W/m 35,4 km/h (5 Bft) 95,65 %
28.08.2020 05:32 16,6 C 16,1 C 15,6 C 90 % 1003,3 hPa 0,0 l/m 0 min 0 min 0 W/m 22,5 km/h (4 Bft) 95,74 %
28.08.2020 05:34 16,6 C 16,1 C 15,6 C 90 % 1003,4 hPa 0,0 l/m 0 min 0 min 0 W/m 22,5 km/h (4 Bft) 95,74 %
28.08.2020 05:36 16,7 C 16,1 C 15,6 C 90 % 1003,3 hPa 0,0 l/m 0 min 0 min 0 W/m 19,3 km/h (3 Bft) 93,62 %
28.08.2020 05:38 16,7 C 16,1 C 15,6 C 90 % 1003,3 hPa 0,0 l/m 0 min 0 min 0 W/m 22,5 km/h (4 Bft) 93,62 %
28.08.2020 05:40 16,7 C 16,1 C 15,6 C 89 % 1003,5 hPa 0,0 l/m 0 min 0 min 0 W/m 16,1 km/h (3 Bft) 95,74 %
28.08.2020 05:42 16,7 C 16,1 C 15,6 C 89 % 1003,3 hPa 0,0 l/m 0 min 0 min 0 W/m 19,3 km/h (3 Bft) 93,48 %
28.08.2020 05:44 16,7 C 16,1 C 15,6 C 89 % 1003,5 hPa 0,0 l/m 0 min 0 min 0 W/m 16,1 km/h (3 Bft) 93,62 %
28.08.2020 05:46 16,7 C 16,1 C 15,6 C 88 % 1003,5 hPa 0,0 l/m 0 min 0 min 0 W/m 19,3 km/h (3 Bft) 95,74 %
28.08.2020 05:48 16,7 C 16,1 C 15,6 C 88 % 1003,5 hPa 0,0 l/m 0 min 0 min 0 W/m 16,1 km/h (3 Bft) 95,74 %
28.08.2020 05:50 16,7 C 16,1 C 15,6 C 88 % 1003,5 hPa 0,0 l/m 0 min 0 min 0 W/m 16,1 km/h (3 Bft) 95,74 %
28.08.2020 05:52 16,7 C 16,1 C 15,6 C 87 % 1003,5 hPa 0,0 l/m 0 min 0 min 0 W/m 12,9 km/h (3 Bft) 95,74 %
28.08.2020 05:54 16,7 C 16,1 C 15,6 C 87 % 1003,5 hPa 0,0 l/m 0 min 0 min 0 W/m 9,7 km/h (2 Bft) 95,65 %
28.08.2020 05:56 16,7 C 16,1 C 15,6 C 87 % 1003,5 hPa 0,0 l/m 0 min 0 min 0 W/m 16,1 km/h (3 Bft) 97,87 %
28.08.2020 05:58 16,7 C 16,1 C 15,6 C 87 % 1003,5 hPa 0,0 l/m 0 min 0 min 0 W/m 16,1 km/h (3 Bft) 97,87 %
28.08.2020 06:00 16,7 C 16,1 C 15,6 C 87 % 1003,4 hPa 0,0 l/m 0 min 0 min 0 W/m 16,1 km/h (3 Bft) 97,87 %
28.08.2020 06:02 16,7 C 16,1 C 15,6 C 87 % 1003,4 hPa 0,0 l/m 0 min 0 min 0 W/m 6,4 km/h (2 Bft) 95,74 %
28.08.2020 06:04 16,7 C 16,1 C 15,6 C 87 % 1003,5 hPa 0,0 l/m 0 min 0 min 0 W/m 12,9 km/h (3 Bft) 97,87 %
28.08.2020 06:08 16,7 C 16,1 C 15,6 C 87 % 1003,5 hPa 0,0 l/m 0 min 0 min 0 W/m 19,3 km/h (3 Bft) 96,55 %
28.08.2020 06:10 16,7 C 16,1 C 15,6 C 86 % 1003,4 hPa 0,0 l/m 0 min 0 min 0 W/m 12,9 km/h (3 Bft) 95,74 %
28.08.2020 06:12 16,7 C 16,1 C 15,6 C 86 % 1003,5 hPa 0,0 l/m 0 min 0 min 0 W/m 12,9 km/h (3 Bft) 93,62 %
28.08.2020 06:14 16,7 C 16,1 C 15,6 C 86 % 1003,5 hPa 0,0 l/m 0 min 0 min 0 W/m 19,3 km/h (3 Bft) 95,74 %
28.08.2020 06:16 16,7 C 16,1 C 15,6 C 86 % 1003,5 hPa 0,0 l/m 0 min 0 min 0 W/m 16,1 km/h (3 Bft) 97,83 %
28.08.2020 06:18 16,7 C 16,1 C 15,6 C 86 % 1003,5 hPa 0,0 l/m 0 min 0 min 0 W/m 19,3 km/h (3 Bft) 97,87 %
28.08.2020 06:20 16,7 C 16,1 C 15,6 C 86 % 1003,5 hPa 0,0 l/m 0 min 0 min 0 W/m 12,9 km/h (3 Bft) 97,87 %
28.08.2020 06:22 16,7 C 16,1 C 15,6 C 86 % 1003,5 hPa 0,0 l/m 0 min 0 min 0 W/m 16,1 km/h (3 Bft) 95,74 %
28.08.2020 06:24 16,8 C 16,1 C 15,6 C 86 % 1003,5 hPa 0,0 l/m 0 min 0 min 0 W/m 16,1 km/h (3 Bft) 97,87 %
28.08.2020 06:26 16,8 C 16,1 C 15,6 C 86 % 1003,5 hPa 0,0 l/m 0 min 0 min 0 W/m 16,1 km/h (3 Bft) 97,83 %
28.08.2020 06:28 16,8 C 16,1 C 15,6 C 86 % 1003,5 hPa 0,0 l/m 0 min 0 min 0 W/m 19,3 km/h (3 Bft) 97,87 %
28.08.2020 06:30 16,8 C 16,1 C 15,6 C 86 % 1003,5 hPa 0,0 l/m 0 min 0 min 0 W/m 25,7 km/h (4 Bft) 97,87 %
28.08.2020 06:32 16,8 C 16,1 C 15,6 C 86 % 1003,5 hPa 0,0 l/m 0 min 0 min 0 W/m 12,9 km/h (3 Bft) 97,87 %
28.08.2020 06:34 16,8 C 16,1 C 15,6 C 86 % 1003,4 hPa 0,0 l/m 0 min 0 min 0 W/m 16,1 km/h (3 Bft) 95,74 %
28.08.2020 06:36 16,8 C 16,1 C 15,6 C 86 % 1003,5 hPa 0,0 l/m 0 min 0 min 0 W/m 16,1 km/h (3 Bft) 95,74 %
28.08.2020 06:38 16,8 C 16,1 C 15,6 C 86 % 1003,5 hPa 0,0 l/m 0 min 0 min 0 W/m 16,1 km/h (3 Bft) 97,87 %
28.08.2020 06:40 16,8 C 16,1 C 15,6 C 86 % 1003,4 hPa 0,0 l/m 0 min 0 min 0 W/m 16,1 km/h (3 Bft) 97,83 %
28.08.2020 06:42 16,8 C 16,1 C 15,6 C 86 % 1003,5 hPa 0,0 l/m 0 min 0 min 0 W/m 12,9 km/h (3 Bft) 100,00 %
28.08.2020 06:44 16,8 C 16,1 C 15,6 C 86 % 1003,5 hPa 0,0 l/m 0 min 0 min 0 W/m 16,1 km/h (3 Bft) 100,00 %
28.08.2020 06:46 16,8 C 16,1 C 15,6 C 86 % 1003,5 hPa 0,0 l/m 0 min 0 min 0 W/m 19,3 km/h (3 Bft) 100,00 %
28.08.2020 06:48 16,8 C 16,1 C 15,6 C 86 % 1003,5 hPa 0,0 l/m 0 min 0 min 0 W/m 16,1 km/h (3 Bft) 95,74 %
28.08.2020 06:50 16,8 C 16,1 C 15,6 C 86 % 1003,5 hPa 0,0 l/m 0 min 0 min 0 W/m 16,1 km/h (3 Bft) 100,00 %
28.08.2020 06:52 16,8 C 16,1 C 15,6 C 86 % 1003,5 hPa 0,0 l/m 0 min 0 min 0 W/m 16,1 km/h (3 Bft) 100,00 %
28.08.2020 06:54 16,8 C 16,1 C 15,6 C 86 % 1003,5 hPa 0,0 l/m 0 min 0 min 0 W/m 12,9 km/h (3 Bft) 100,00 %
28.08.2020 06:56 16,8 C 16,1 C 15,6 C 86 % 1003,5 hPa 0,0 l/m 0 min 0 min 0 W/m 12,9 km/h (3 Bft) 100,00 %
28.08.2020 06:58 16,8 C 16,1 C 15,6 C 86 % 1003,6 hPa 0,0 l/m 0 min 0 min 0 W/m 19,3 km/h (3 Bft) 97,87 %
28.08.2020 07:00 16,8 C 16,1 C 15,6 C 86 % 1003,5 hPa 0,0 l/m 0 min 0 min 0 W/m 12,9 km/h (3 Bft) 100,00 %
28.08.2020 07:02 16,8 C 16,1 C 15,6 C 86 % 1003,5 hPa 0,0 l/m 0 min 0 min 0 W/m 22,5 km/h (4 Bft) 100,00 %
28.08.2020 07:04 16,8 C 16,1 C 15,6 C 86 % 1003,5 hPa 0,0 l/m 0 min 0 min 0 W/m 25,7 km/h (4 Bft) 100,00 %
28.08.2020 07:06 16,8 C 16,1 C 15,6 C 86 % 1003,4 hPa 0,0 l/m 0 min 0 min 0 W/m 12,9 km/h (3 Bft) 100,00 %
28.08.2020 07:08 16,8 C 16,1 C 15,6 C 86 % 1003,4 hPa 0,0 l/m 0 min 0 min 0 W/m 12,9 km/h (3 Bft) 100,00 %
28.08.2020 07:10 16,8 C 16,1 C 15,6 C 86 % 1003,4 hPa 0,0 l/m 0 min 0 min 0 W/m 19,3 km/h (3 Bft) 100,00 %
28.08.2020 07:12 16,8 C 16,1 C 15,6 C 86 % 1003,5 hPa 0,0 l/m 0 min 0 min 3 W/m 16,1 km/h (3 Bft) 95,74 %
28.08.2020 07:14 16,9 C 16,1 C 15,6 C 86 % 1003,4 hPa 0,0 l/m 0 min 0 min 5 W/m 16,1 km/h (3 Bft) 100,00 %
28.08.2020 07:16 16,9 C 16,1 C 15,6 C 86 % 1003,5 hPa 0,0 l/m 0 min 0 min 5 W/m 6,4 km/h (2 Bft) 100,00 %
28.08.2020 07:18 16,9 C 16,1 C 15,6 C 86 % 1003,4 hPa 0,0 l/m 0 min 0 min 5 W/m 22,5 km/h (4 Bft) 100,00 %
28.08.2020 07:20 16,9 C 16,1 C 15,6 C 86 % 1003,5 hPa 0,0 l/m 0 min 0 min 5 W/m 12,9 km/h (3 Bft) 100,00 %
28.08.2020 07:22 16,9 C 16,1 C 15,6 C 86 % 1003,5 hPa 0,0 l/m 0 min 0 min 3 W/m 19,3 km/h (3 Bft) 100,00 %
28.08.2020 07:24 16,9 C 16,1 C 15,6 C 86 % 1003,5 hPa 0,0 l/m 0 min 0 min 3 W/m 16,1 km/h (3 Bft) 100,00 %
28.08.2020 07:26 16,9 C 16,1 C 15,6 C 86 % 1003,4 hPa 0,0 l/m 0 min 0 min 6 W/m 12,9 km/h (3 Bft) 100,00 %
28.08.2020 07:28 16,9 C 16,1 C 15,6 C 86 % 1003,4 hPa 0,0 l/m 0 min 0 min 7 W/m 16,1 km/h (3 Bft) 100,00 %
28.08.2020 07:30 16,9 C 16,1 C 15,6 C 86 % 1003,3 hPa 0,0 l/m 0 min 0 min 8 W/m 19,3 km/h (3 Bft) 100,00 %
28.08.2020 07:32 16,9 C 16,1 C 15,6 C 86 % 1003,3 hPa 0,0 l/m 0 min 0 min 9 W/m 12,9 km/h (3 Bft) 100,00 %
28.08.2020 07:34 16,9 C 16,1 C 15,6 C 86 % 1003,4 hPa 0,0 l/m 0 min 0 min 8 W/m 16,1 km/h (3 Bft) 100,00 %
28.08.2020 07:36 16,9 C 16,1 C 15,6 C 86 % 1003,3 hPa 0,0 l/m 0 min 0 min 7 W/m 16,1 km/h (3 Bft) 95,74 %
28.08.2020 07:38 16,9 C 16,1 C 15,6 C 86 % 1003,3 hPa 0,0 l/m 0 min 0 min 5 W/m 16,1 km/h (3 Bft) 97,83 %
28.08.2020 07:40 16,9 C 16,1 C 15,6 C 86 % 1003,4 hPa 0,0 l/m 0 min 0 min 5 W/m 16,1 km/h (3 Bft) 95,74 %
28.08.2020 07:42 16,9 C 16,1 C 15,6 C 86 % 1003,4 hPa 0,0 l/m 0 min 0 min 7 W/m 22,5 km/h (4 Bft) 95,74 %
28.08.2020 07:44 16,9 C 16,1 C 15,6 C 86 % 1003,3 hPa 0,0 l/m 0 min 0 min 9 W/m 19,3 km/h (3 Bft) 95,74 %
28.08.2020 07:46 16,9 C 16,1 C 15,6 C 86 % 1003,3 hPa 0,0 l/m 0 min 0 min 9 W/m 19,3 km/h (3 Bft) 95,74 %
28.08.2020 07:48 16,9 C 16,1 C 15,6 C 86 % 1003,3 hPa 0,0 l/m 0 min 0 min 10 W/m 22,5 km/h (4 Bft) 97,87 %
28.08.2020 07:50 16,9 C 16,1 C 15,6 C 85 % 1003,4 hPa 0,0 l/m 0 min 0 min 11 W/m 12,9 km/h (3 Bft) 97,83 %
28.08.2020 07:52 16,9 C 16,1 C 15,6 C 85 % 1003,3 hPa 0,0 l/m 0 min 0 min 13 W/m 16,1 km/h (3 Bft) 97,87 %
28.08.2020 07:54 16,9 C 16,1 C 15,6 C 85 % 1003,4 hPa 0,0 l/m 0 min 0 min 17 W/m 22,5 km/h (4 Bft) 97,87 %
28.08.2020 07:56 16,9 C 16,1 C 15,6 C 85 % 1003,4 hPa 0,0 l/m 0 min 0 min 17 W/m 19,3 km/h (3 Bft) 97,87 %
28.08.2020 07:58 17,0 C 16,1 C 15,6 C 85 % 1003,4 hPa 0,0 l/m 0 min 0 min 16 W/m 22,5 km/h (4 Bft) 97,87 %
28.08.2020 08:00 17,0 C 16,1 C 15,6 C 85 % 1003,4 hPa 0,0 l/m 0 min 0 min 22 W/m 25,7 km/h (4 Bft) 95,74 %
28.08.2020 08:02 17,0 C 16,1 C 15,6 C 85 % 1003,3 hPa 0,0 l/m 0 min 0 min 27 W/m 12,9 km/h (3 Bft) 95,65 %
28.08.2020 08:04 17,0 C 16,1 C 15,6 C 85 % 1003,3 hPa 0,0 l/m 0 min 0 min 31 W/m 16,1 km/h (3 Bft) 93,62 %
28.08.2020 08:06 17,0 C 16,1 C 15,6 C 85 % 1003,3 hPa 0,0 l/m 0 min 0 min 31 W/m 16,1 km/h (3 Bft) 93,62 %
28.08.2020 08:08 17,0 C 16,1 C 15,6 C 85 % 1003,3 hPa 0,0 l/m 0 min 0 min 28 W/m 16,1 km/h (3 Bft) 95,92 %
28.08.2020 08:10 17,0 C 16,1 C 15,6 C 85 % 1003,3 hPa 0,0 l/m 0 min 0 min 27 W/m 16,1 km/h (3 Bft) 95,83 %
28.08.2020 08:12 17,0 C 16,1 C 15,6 C 85 % 1003,3 hPa 0,0 l/m 0 min 0 min 23 W/m 25,7 km/h (4 Bft) 94,29 %
28.08.2020 08:14 17,0 C 16,1 C 15,6 C 85 % 1003,3 hPa 0,0 l/m 0 min 0 min 14 W/m 22,5 km/h (4 Bft) 95,74 %
28.08.2020 08:16 17,0 C 15,6 C 15,6 C 85 % 1003,3 hPa 0,0 l/m 0 min 0 min 13 W/m 22,5 km/h (4 Bft) 95,74 %
28.08.2020 08:18 17,0 C 15,6 C 15,6 C 86 % 1003,3 hPa 0,0 l/m 0 min 0 min 12 W/m 12,9 km/h (3 Bft) 95,74 %
28.08.2020 08:20 17,0 C 16,1 C 15,6 C 86 % 1003,3 hPa 0,0 l/m 0 min 0 min 14 W/m 16,1 km/h (3 Bft) 95,74 %
28.08.2020 08:22 17,0 C 16,1 C 15,6 C 86 % 1003,3 hPa 0,0 l/m 0 min 0 min 19 W/m 19,3 km/h (3 Bft) 95,74 %
28.08.2020 08:24 17,0 C 16,1 C 15,6 C 86 % 1003,4 hPa 0,0 l/m 0 min 0 min 22 W/m 19,3 km/h (3 Bft) 95,65 %
28.08.2020 08:26 17,0 C 16,1 C 15,6 C 85 % 1003,3 hPa 0,0 l/m 0 min 0 min 20 W/m 16,1 km/h (3 Bft) 97,87 %
28.08.2020 08:28 17,0 C 16,1 C 15,6 C 85 % 1003,3 hPa 0,0 l/m 0 min 0 min 14 W/m 6,4 km/h (2 Bft) 95,74 %
28.08.2020 08:30 17,0 C 16,1 C 15,6 C 86 % 1003,3 hPa 0,0 l/m 0 min 0 min 12 W/m 12,9 km/h (3 Bft) 97,87 %
28.08.2020 08:32 16,9 C 16,1 C 15,6 C 86 % 1003,3 hPa 0,0 l/m 0 min 0 min 13 W/m 12,9 km/h (3 Bft) 93,62 %
28.08.2020 08:34 16,9 C 16,1 C 15,6 C 86 % 1003,4 hPa 0,0 l/m 0 min 0 min 19 W/m 19,3 km/h (3 Bft) 95,74 %
28.08.2020 08:36 16,9 C 16,1 C 15,6 C 86 % 1003,4 hPa 0,0 l/m 0 min 0 min 27 W/m 12,9 km/h (3 Bft) 97,83 %
28.08.2020 08:38 16,9 C 16,1 C 15,6 C 85 % 1003,3 hPa 0,0 l/m 0 min 0 min 37 W/m 16,1 km/h (3 Bft) 97,87 %
28.08.2020 08:40 16,9 C 16,1 C 15,6 C 85 % 1003,3 hPa 0,0 l/m 0 min 0 min 45 W/m 19,3 km/h (3 Bft) 97,87 %
28.08.2020 08:42 16,9 C 16,7 C 15,6 C 85 % 1003,3 hPa 0,0 l/m 0 min 0 min 52 W/m 19,3 km/h (3 Bft) 95,74 %
28.08.2020 08:44 16,9 C 16,7 C 16,1 C 85 % 1003,2 hPa 0,0 l/m 0 min 0 min 60 W/m 16,1 km/h (3 Bft) 97,87 %
28.08.2020 08:46 16,9 C 16,7 C 16,1 C 85 % 1003,3 hPa 0,0 l/m 0 min 0 min 68 W/m 16,1 km/h (3 Bft) 95,65 %
28.08.2020 08:48 17,0 C 16,7 C 16,1 C 85 % 1003,3 hPa 0,0 l/m 0 min 0 min 75 W/m 12,9 km/h (3 Bft) 97,87 %
28.08.2020 08:50 17,0 C 16,7 C 16,1 C 85 % 1003,3 hPa 0,0 l/m 0 min 0 min 84 W/m 16,1 km/h (3 Bft) 95,74 %
28.08.2020 08:52 17,0 C 16,7 C 16,1 C 85 % 1003,3 hPa 0,0 l/m 0 min 0 min 87 W/m 22,5 km/h (4 Bft) 100,00 %
28.08.2020 08:54 17,1 C 16,7 C 16,1 C 85 % 1003,3 hPa 0,0 l/m 0 min 0 min 85 W/m 22,5 km/h (4 Bft) 97,87 %
28.08.2020 08:56 17,1 C 16,7 C 16,1 C 85 % 1003,3 hPa 0,0 l/m 0 min 0 min 91 W/m 19,3 km/h (3 Bft) 100,00 %
28.08.2020 08:58 17,1 C 16,7 C 16,1 C 85 % 1003,2 hPa 0,0 l/m 0 min 0 min 98 W/m 16,1 km/h (3 Bft) 100,00 %
28.08.2020 09:00 17,1 C 17,2 C 16,1 C 85 % 1003,2 hPa 0,0 l/m 0 min 0 min 99 W/m 19,3 km/h (3 Bft) 100,00 %
28.08.2020 09:02 17,1 C 17,2 C 16,1 C 85 % 1003,3 hPa 0,0 l/m 0 min 0 min 105 W/m 16,1 km/h (3 Bft) 97,87 %
28.08.2020 09:04 17,2 C 17,2 C 16,7 C 85 % 1003,3 hPa 0,0 l/m 0 min 0 min 136 W/m 19,3 km/h (3 Bft) 100,00 %
28.08.2020 09:06 17,2 C 18,3 C 16,7 C 85 % 1003,3 hPa 0,0 l/m 2 min 0 min 200 W/m 19,3 km/h (3 Bft) 100,00 %
28.08.2020 09:08 17,2 C 19,4 C 16,7 C 85 % 1003,2 hPa 0,0 l/m 2 min 0 min 218 W/m 19,3 km/h (3 Bft) 100,00 %
28.08.2020 09:10 17,3 C 19,4 C 17,2 C 85 % 1003,3 hPa 0,0 l/m 2 min 0 min 214 W/m 16,1 km/h (3 Bft) 97,83 %
28.08.2020 09:12 17,4 C 18,9 C 17,2 C 84 % 1003,1 hPa 0,0 l/m 2 min 0 min 214 W/m 22,5 km/h (4 Bft) 97,87 %
28.08.2020 09:14 17,4 C 18,9 C 16,7 C 84 % 1003,2 hPa 0,0 l/m 0 min 0 min 142 W/m 16,1 km/h (3 Bft) 97,87 %
28.08.2020 09:16 17,5 C 18,3 C 16,7 C 84 % 1003,2 hPa 0,0 l/m 0 min 0 min 144 W/m 25,7 km/h (4 Bft) 97,87 %
28.08.2020 09:18 17,6 C 17,8 C 16,7 C 83 % 1003,2 hPa 0,0 l/m 0 min 0 min 155 W/m 29,0 km/h (5 Bft) 97,87 %
28.08.2020 09:20 17,6 C 18,3 C 16,7 C 83 % 1003,2 hPa 0,0 l/m 2 min 0 min 224 W/m 25,7 km/h (4 Bft) 97,87 %
28.08.2020 09:22 17,6 C 18,9 C 17,2 C 82 % 1003,1 hPa 0,0 l/m 0 min 0 min 197 W/m 19,3 km/h (3 Bft) 97,83 %
28.08.2020 09:24 17,7 C 18,9 C 17,2 C 82 % 1003,2 hPa 0,0 l/m 2 min 0 min 320 W/m 25,7 km/h (4 Bft) 97,87 %
28.08.2020 09:26 17,7 C 18,9 C 17,2 C 82 % 1003,0 hPa 0,0 l/m 0 min 0 min 192 W/m 19,3 km/h (3 Bft) 95,74 %
28.08.2020 09:28 17,8 C 20,0 C 18,3 C 81 % 1003,3 hPa 0,0 l/m 2 min 0 min 441 W/m 29,0 km/h (5 Bft) 97,87 %
28.08.2020 09:30 17,9 C 21,1 C 18,3 C 81 % 1003,1 hPa 0,0 l/m 2 min 0 min 485 W/m 25,7 km/h (4 Bft) 97,87 %
28.08.2020 09:32 17,9 C 20,6 C 18,9 C 81 % 1003,3 hPa 0,0 l/m 2 min 0 min 295 W/m 32,2 km/h (5 Bft) 97,87 %
28.08.2020 09:34 18,1 C 20,6 C 18,9 C 80 % 1003,1 hPa 0,0 l/m 2 min 0 min 236 W/m 16,1 km/h (3 Bft) 97,83 %
28.08.2020 09:36 18,1 C 18,9 C 18,3 C 80 % 1003,2 hPa 0,0 l/m 0 min 0 min 178 W/m 16,1 km/h (3 Bft) 97,87 %
28.08.2020 09:38 18,1 C 17,8 C 17,2 C 79 % 1003,2 hPa 0,0 l/m 0 min 0 min 85 W/m 29,0 km/h (5 Bft) 97,87 %
28.08.2020 09:40 18,1 C 18,3 C 17,2 C 78 % 1003,1 hPa 0,0 l/m 0 min 0 min 100 W/m 35,4 km/h (5 Bft) 97,87 %
28.08.2020 09:42 18,1 C 20,0 C 18,9 C 78 % 1003,1 hPa 0,0 l/m 0 min 0 min 107 W/m 25,7 km/h (4 Bft) 97,87 %
28.08.2020 09:44 18,1 C 19,4 C 18,9 C 78 % 1003,2 hPa 0,0 l/m 2 min 0 min 494 W/m 25,7 km/h (4 Bft) 97,87 %
28.08.2020 09:46 18,1 C 20,6 C 20,6 C 78 % 1003,2 hPa 0,0 l/m 2 min 0 min 493 W/m 16,1 km/h (3 Bft) 97,83 %
28.08.2020 09:48 18,2 C 21,1 C 21,7 C 78 % 1003,0 hPa 0,0 l/m 2 min 0 min 509 W/m 22,5 km/h (4 Bft) 97,87 %
28.08.2020 09:50 18,2 C 22,2 C 22,2 C 79 % 1003,1 hPa 0,0 l/m 2 min 0 min 526 W/m 22,5 km/h (4 Bft) 97,87 %
28.08.2020 09:52 18,3 C 22,8 C 23,3 C 78 % 1003,2 hPa 0,0 l/m 2 min 0 min 578 W/m 29,0 km/h (5 Bft) 95,74 %
28.08.2020 09:54 18,4 C 21,7 C 21,7 C 78 % 1003,0 hPa 0,0 l/m 2 min 0 min 412 W/m 12,9 km/h (3 Bft) 97,87 %
28.08.2020 09:56 18,6 C 22,2 C 22,8 C 78 % 1003,1 hPa 0,0 l/m 2 min 0 min 464 W/m 16,1 km/h (3 Bft) 97,87 %
28.08.2020 09:58 18,7 C 22,2 C 22,8 C 77 % 1002,9 hPa 0,0 l/m 2 min 0 min 613 W/m 22,5 km/h (4 Bft) 97,83 %
28.08.2020 10:00 18,7 C 21,1 C 21,7 C 76 % 1003,0 hPa 0,0 l/m 2 min 0 min 408 W/m 25,7 km/h (4 Bft) 100,00 %
28.08.2020 10:02 18,8 C 20,6 C 20,6 C 76 % 1003,0 hPa 0,0 l/m 0 min 0 min 188 W/m 19,3 km/h (3 Bft) 95,74 %
28.08.2020 10:04 18,8 C 22,2 C 22,8 C 76 % 1003,1 hPa 0,0 l/m 2 min 0 min 534 W/m 22,5 km/h (4 Bft) 100,00 %
28.08.2020 10:06 18,9 C 23,9 C 24,4 C 76 % 1002,9 hPa 0,0 l/m 2 min 0 min 655 W/m 25,7 km/h (4 Bft) 100,00 %
28.08.2020 10:08 19,1 C 21,7 C 22,8 C 76 % 1003,0 hPa 0,0 l/m 2 min 0 min 651 W/m 19,3 km/h (3 Bft) 100,00 %
28.08.2020 10:10 19,1 C 21,7 C 22,8 C 75 % 1003,0 hPa 0,0 l/m 2 min 0 min 322 W/m 32,2 km/h (5 Bft) 100,00 %
28.08.2020 10:12 19,2 C 22,2 C 23,3 C 74 % 1003,0 hPa 0,0 l/m 2 min 0 min 653 W/m 32,2 km/h (5 Bft) 97,87 %
28.08.2020 10:14 19,3 C 20,6 C 21,1 C 74 % 1003,0 hPa 0,0 l/m 2 min 0 min 410 W/m 16,1 km/h (3 Bft) 97,87 %
28.08.2020 10:16 19,3 C 21,1 C 21,1 C 74 % 1003,0 hPa 0,0 l/m 2 min 0 min 261 W/m 16,1 km/h (3 Bft) 95,74 %
28.08.2020 10:18 19,3 C 20,0 C 20,0 C 74 % 1003,0 hPa 0,0 l/m 0 min 0 min 215 W/m 22,5 km/h (4 Bft) 97,87 %
28.08.2020 10:20 19,3 C 19,4 C 18,9 C 73 % 1003,1 hPa 0,0 l/m 0 min 0 min 180 W/m 32,2 km/h (5 Bft) 97,83 %
28.08.2020 10:22 19,3 C 20,6 C 20,0 C 73 % 1003,0 hPa 0,0 l/m 0 min 0 min 185 W/m 32,2 km/h (5 Bft) 97,87 %
28.08.2020 10:24 19,3 C 20,6 C 20,0 C 73 % 1002,9 hPa 0,0 l/m 0 min 0 min 185 W/m 22,5 km/h (4 Bft) 97,87 %
28.08.2020 10:26 19,2 C 19,4 C 18,9 C 73 % 1003,0 hPa 0,0 l/m 0 min 0 min 152 W/m 22,5 km/h (4 Bft) 96,49 %
28.08.2020 10:28 19,1 C 18,9 C 18,3 C 73 % 1003,0 hPa 0,0 l/m 0 min 0 min 150 W/m 35,4 km/h (5 Bft) 95,83 %
28.08.2020 10:30 19,1 C 19,4 C 18,3 C 73 % 1003,0 hPa 0,0 l/m 0 min 0 min 138 W/m 16,1 km/h (3 Bft) 97,87 %
28.08.2020 10:32 19,0 C 19,4 C 18,3 C 73 % 1003,0 hPa 0,0 l/m 0 min 0 min 149 W/m 25,7 km/h (4 Bft) 95,74 %
28.08.2020 10:34 18,9 C 18,9 C 17,8 C 73 % 1003,0 hPa 0,0 l/m 0 min 0 min 137 W/m 16,1 km/h (3 Bft) 97,87 %
28.08.2020 10:36 18,9 C 18,9 C 17,8 C 74 % 1003,0 hPa 0,0 l/m 0 min 0 min 95 W/m 6,4 km/h (2 Bft) 97,87 %
28.08.2020 10:38 18,9 C 18,9 C 17,8 C 74 % 1003,0 hPa 0,0 l/m 0 min 0 min 95 W/m 16,1 km/h (3 Bft) 93,62 %
28.08.2020 10:40 18,8 C 20,6 C 18,3 C 74 % 1003,0 hPa 0,0 l/m 0 min 0 min 224 W/m 12,9 km/h (3 Bft) 97,83 %
28.08.2020 10:42 18,8 C 23,3 C 18,9 C 74 % 1003,0 hPa 0,0 l/m 2 min 0 min 499 W/m 12,9 km/h (3 Bft) 97,87 %
28.08.2020 10:44 19,0 C 22,8 C 19,4 C 75 % 1003,0 hPa 0,0 l/m 2 min 0 min 758 W/m 32,2 km/h (5 Bft) 95,74 %
28.08.2020 10:46 19,1 C 21,1 C 19,4 C 74 % 1003,1 hPa 0,0 l/m 2 min 0 min 307 W/m 25,7 km/h (4 Bft) 95,74 %
28.08.2020 10:48 19,1 C 20,0 C 18,9 C 74 % 1003,1 hPa 0,0 l/m 0 min 0 min 144 W/m 32,2 km/h (5 Bft) 97,87 %
28.08.2020 10:50 19,1 C 18,3 C 17,8 C 73 % 1003,3 hPa 0,0 l/m 0 min 0 min 145 W/m 32,2 km/h (5 Bft) 97,87 %
28.08.2020 10:52 19,1 C 18,3 C 17,8 C 73 % 1003,1 hPa 0,0 l/m 0 min 0 min 196 W/m 29,0 km/h (5 Bft) 97,83 %
28.08.2020 10:54 19,0 C 18,9 C 17,8 C 73 % 1003,2 hPa 0,0 l/m 0 min 0 min 218 W/m 35,4 km/h (5 Bft) 95,74 %
28.08.2020 10:56 18,9 C 18,9 C 17,8 C 72 % 1003,2 hPa 0,0 l/m 0 min 0 min 166 W/m 22,5 km/h (4 Bft) 97,87 %
28.08.2020 10:58 18,8 C 21,7 C 18,3 C 73 % 1003,1 hPa 0,0 l/m 2 min 0 min 365 W/m 16,1 km/h (3 Bft) 100,00 %
28.08.2020 11:00 18,8 C 22,8 C 18,3 C 72 % 1003,3 hPa 0,0 l/m 2 min 0 min 676 W/m 19,3 km/h (3 Bft) 100,00 %
28.08.2020 11:02 18,9 C 22,8 C 18,9 C 70 % 1003,2 hPa 0,0 l/m 2 min 0 min 676 W/m 25,7 km/h (4 Bft) 100,00 %
28.08.2020 11:04 18,9 C 22,2 C 18,9 C 67 % 1003,1 hPa 0,0 l/m 2 min 0 min 675 W/m 45,1 km/h (6 Bft) 97,87 %
28.08.2020 11:06 19,0 C 23,3 C 18,9 C 68 % 1003,0 hPa 0,0 l/m 2 min 0 min 690 W/m 32,2 km/h (5 Bft) 100,00 %
28.08.2020 11:08 19,1 C 23,3 C 18,9 C 68 % 1003,0 hPa 0,0 l/m 2 min 0 min 698 W/m 19,3 km/h (3 Bft) 97,14 %
28.08.2020 11:10 19,3 C 24,4 C 19,4 C 68 % 1003,1 hPa 0,0 l/m 2 min 0 min 719 W/m 22,5 km/h (4 Bft) 97,87 %
28.08.2020 11:12 19,4 C 25,0 C 20,0 C 69 % 1003,0 hPa 0,0 l/m 2 min 0 min 799 W/m 22,5 km/h (4 Bft) 100,00 %
28.08.2020 11:14 19,6 C 26,1 C 20,0 C 69 % 1003,0 hPa 0,0 l/m 2 min 0 min 823 W/m 22,5 km/h (4 Bft) 100,00 %
28.08.2020 11:16 19,8 C 26,1 C 20,6 C 69 % 1002,9 hPa 0,0 l/m 2 min 0 min 831 W/m 12,9 km/h (3 Bft) 100,00 %
28.08.2020 11:18 20,1 C 24,4 C 20,0 C 69 % 1002,9 hPa 0,0 l/m 2 min 0 min 796 W/m 25,7 km/h (4 Bft) 97,83 %
28.08.2020 11:20 20,2 C 21,7 C 20,0 C 67 % 1002,9 hPa 0,0 l/m 2 min 0 min 393 W/m 25,7 km/h (4 Bft) 100,00 %
28.08.2020 11:22 20,2 C 22,8 C 20,0 C 67 % 1003,0 hPa 0,0 l/m 2 min 0 min 317 W/m 25,7 km/h (4 Bft) 100,00 %
28.08.2020 11:24 20,3 C 24,4 C 20,0 C 67 % 1003,0 hPa 0,0 l/m 2 min 0 min 892 W/m 25,7 km/h (4 Bft) 100,00 %
28.08.2020 11:26 20,4 C 24,4 C 20,6 C 67 % 1003,0 hPa 0,0 l/m 2 min 0 min 859 W/m 32,2 km/h (5 Bft) 97,87 %
28.08.2020 11:28 20,6 C 25,0 C 20,6 C 67 % 1003,0 hPa 0,0 l/m 2 min 0 min 878 W/m 32,2 km/h (5 Bft) 97,87 %
28.08.2020 11:30 20,6 C 25,0 C 20,6 C 66 % 1002,9 hPa 0,0 l/m 2 min 0 min 887 W/m 38,6 km/h (5 Bft) 100,00 %
28.08.2020 11:32 20,8 C 26,1 C 20,6 C 66 % 1002,9 hPa 0,0 l/m 2 min 0 min 895 W/m 22,5 km/h (4 Bft) 100,00 %
28.08.2020 11:34 20,9 C 25,6 C 21,1 C 67 % 1002,9 hPa 0,0 l/m 2 min 0 min 838 W/m 25,7 km/h (4 Bft) 100,00 %
28.08.2020 11:36 21,1 C 24,4 C 21,1 C 66 % 1002,9 hPa 0,0 l/m 2 min 0 min 703 W/m 22,5 km/h (4 Bft) 97,87 %
28.08.2020 11:38 21,1 C 22,8 C 20,6 C 65 % 1002,9 hPa 0,0 l/m 2 min 0 min 427 W/m 29,0 km/h (5 Bft) 97,87 %
28.08.2020 11:40 21,1 C 22,2 C 20,0 C 64 % 1002,9 hPa 0,0 l/m 2 min 0 min 431 W/m 25,7 km/h (4 Bft) 100,00 %
28.08.2020 11:42 21,1 C 21,7 C 20,0 C 64 % 1002,9 hPa 0,0 l/m 2 min 0 min 425 W/m 29,0 km/h (5 Bft) 97,83 %
28.08.2020 11:44 21,1 C 22,2 C 20,0 C 65 % 1002,9 hPa 0,0 l/m 2 min 0 min 424 W/m 22,5 km/h (4 Bft) 97,87 %
28.08.2020 11:46 21,0 C 22,8 C 20,0 C 65 % 1003,0 hPa 0,0 l/m 2 min 0 min 397 W/m 19,3 km/h (3 Bft) 97,87 %
28.08.2020 11:48 20,9 C 22,2 C 20,0 C 65 % 1002,9 hPa 0,0 l/m 2 min 0 min 572 W/m 32,2 km/h (5 Bft) 97,87 %
28.08.2020 11:50 20,9 C 22,8 C 20,0 C 65 % 1002,9 hPa 0,0 l/m 2 min 0 min 532 W/m 22,5 km/h (4 Bft) 97,87 %
28.08.2020 11:52 20,9 C 23,3 C 20,0 C 66 % 1002,9 hPa 0,0 l/m 2 min 0 min 520 W/m 19,3 km/h (3 Bft) 93,62 %
28.08.2020 11:54 20,8 C 22,8 C 20,0 C 66 % 1002,9 hPa 0,0 l/m 2 min 0 min 549 W/m 29,0 km/h (5 Bft) 97,83 %
28.08.2020 11:56 20,8 C 22,8 C 20,0 C 66 % 1002,8 hPa 0,0 l/m 2 min 0 min 535 W/m 25,7 km/h (4 Bft) 97,87 %
28.08.2020 11:58 20,8 C 23,3 C 20,6 C 66 % 1002,8 hPa 0,0 l/m 2 min 0 min 617 W/m 22,5 km/h (4 Bft) 97,87 %
28.08.2020 12:00 20,8 C 23,9 C 20,6 C 67 % 1002,8 hPa 0,0 l/m 2 min 0 min 583 W/m 16,1 km/h (3 Bft) 97,87 %
28.08.2020 12:02 20,8 C 23,9 C 20,6 C 67 % 1002,8 hPa 0,0 l/m 2 min 0 min 519 W/m 25,7 km/h (4 Bft) 97,87 %
28.08.2020 12:04 20,8 C 22,8 C 20,0 C 67 % 1002,8 hPa 0,0 l/m 2 min 0 min 467 W/m 25,7 km/h (4 Bft) 95,65 %
28.08.2020 12:08 20,8 C 22,8 C 20,0 C 67 % 1002,7 hPa 0,0 l/m 4 min 0 min 482 W/m 25,7 km/h (4 Bft) 98,94 %
28.08.2020 12:10 20,8 C 22,2 C 20,0 C 67 % 1002,8 hPa 0,0 l/m 2 min 0 min 504 W/m 35,4 km/h (5 Bft) 95,74 %
28.08.2020 12:12 20,7 C 22,2 C 20,0 C 67 % 1002,8 hPa 0,0 l/m 2 min 0 min 544 W/m 22,5 km/h (4 Bft) 95,74 %
28.08.2020 12:14 20,7 C 22,2 C 20,0 C 67 % 1002,8 hPa 0,0 l/m 2 min 0 min 578 W/m 25,7 km/h (4 Bft) 95,74 %
28.08.2020 12:16 20,6 C 22,8 C 20,0 C 67 % 1002,8 hPa 0,0 l/m 2 min 0 min 531 W/m 22,5 km/h (4 Bft) 95,65 %
28.08.2020 12:18 20,6 C 22,8 C 20,0 C 68 % 1002,7 hPa 0,0 l/m 2 min 0 min 460 W/m 16,1 km/h (3 Bft) 95,74 %
28.08.2020 12:20 20,6 C 23,3 C 20,0 C 68 % 1002,8 hPa 0,0 l/m 2 min 0 min 399 W/m 12,9 km/h (3 Bft) 95,74 %
28.08.2020 12:22 20,6 C 23,3 C 20,0 C 68 % 1002,7 hPa 0,0 l/m 2 min 0 min 555 W/m 22,5 km/h (4 Bft) 91,49 %
28.08.2020 12:24 20,6 C 22,8 C 20,0 C 68 % 1002,8 hPa 0,0 l/m 2 min 0 min 555 W/m 22,5 km/h (4 Bft) 95,74 %
28.08.2020 12:26 20,6 C 22,2 C 20,0 C 67 % 1002,8 hPa 0,0 l/m 2 min 0 min 497 W/m 25,7 km/h (4 Bft) 97,87 %
28.08.2020 12:28 20,6 C 22,2 C 20,0 C 67 % 1002,8 hPa 0,0 l/m 2 min 0 min 468 W/m 19,3 km/h (3 Bft) 94,55 %
28.08.2020 12:30 20,5 C 21,7 C 20,0 C 67 % 1002,8 hPa 0,0 l/m 2 min 0 min 408 W/m 25,7 km/h (4 Bft) 95,74 %
28.08.2020 12:32 20,5 C 22,2 C 19,4 C 68 % 1002,8 hPa 0,0 l/m 2 min 0 min 421 W/m 19,3 km/h (3 Bft) 95,74 %
28.08.2020 12:34 20,5 C 22,2 C 19,4 C 68 % 1002,8 hPa 0,0 l/m 2 min 0 min 483 W/m 25,7 km/h (4 Bft) 97,87 %
28.08.2020 12:36 20,5 C 22,8 C 20,0 C 68 % 1002,8 hPa 0,0 l/m 2 min 0 min 585 W/m 19,3 km/h (3 Bft) 95,74 %
28.08.2020 12:38 20,5 C 22,8 C 20,0 C 68 % 1002,9 hPa 0,0 l/m 2 min 0 min 453 W/m 16,1 km/h (3 Bft) 95,74 %
28.08.2020 12:40 20,5 C 22,2 C 19,4 C 68 % 1002,8 hPa 0,0 l/m 2 min 0 min 438 W/m 25,7 km/h (4 Bft) 95,65 %
28.08.2020 12:42 20,4 C 21,7 C 19,4 C 67 % 1002,7 hPa 0,0 l/m 2 min 0 min 437 W/m 25,7 km/h (4 Bft) 93,62 %
28.08.2020 12:44 20,4 C 22,2 C 19,4 C 67 % 1002,8 hPa 0,0 l/m 2 min 0 min 404 W/m 29,0 km/h (5 Bft) 93,62 %
28.08.2020 12:46 20,4 C 22,2 C 19,4 C 67 % 1002,8 hPa 0,0 l/m 2 min 0 min 475 W/m 22,5 km/h (4 Bft) 93,62 %
28.08.2020 12:48 20,4 C 21,7 C 19,4 C 67 % 1002,9 hPa 0,0 l/m 2 min 0 min 491 W/m 29,0 km/h (5 Bft) 95,74 %
28.08.2020 12:50 20,4 C 21,7 C 19,4 C 67 % 1002,7 hPa 0,0 l/m 2 min 0 min 460 W/m 22,5 km/h (4 Bft) 95,74 %
28.08.2020 12:52 20,4 C 22,8 C 19,4 C 67 % 1002,8 hPa 0,0 l/m 2 min 0 min 599 W/m 19,3 km/h (3 Bft) 97,83 %
28.08.2020 12:54 20,3 C 22,2 C 19,4 C 67 % 1002,8 hPa 0,0 l/m 2 min 0 min 703 W/m 22,5 km/h (4 Bft) 95,74 %
28.08.2020 12:56 20,3 C 22,2 C 19,4 C 67 % 1002,8 hPa 0,0 l/m 2 min 0 min 447 W/m 19,3 km/h (3 Bft) 93,62 %
28.08.2020 12:58 20,4 C 22,8 C 20,0 C 67 % 1002,9 hPa 0,0 l/m 2 min 0 min 554 W/m 32,2 km/h (5 Bft) 93,62 %
28.08.2020 13:00 20,4 C 22,8 C 20,0 C 67 % 1002,7 hPa 0,0 l/m 2 min 0 min 626 W/m 22,5 km/h (4 Bft) 97,87 %
28.08.2020 13:02 20,4 C 22,8 C 20,0 C 67 % 1002,7 hPa 0,0 l/m 2 min 0 min 512 W/m 19,3 km/h (3 Bft) 97,87 %
28.08.2020 13:04 20,4 C 22,8 C 20,0 C 67 % 1002,7 hPa 0,0 l/m 2 min 0 min 497 W/m 22,5 km/h (4 Bft) 97,83 %
28.08.2020 13:06 20,5 C 22,8 C 20,0 C 66 % 1002,6 hPa 0,0 l/m 2 min 0 min 517 W/m 25,7 km/h (4 Bft) 97,87 %
28.08.2020 13:08 20,5 C 22,8 C 20,0 C 67 % 1002,7 hPa 0,0 l/m 2 min 0 min 522 W/m 19,3 km/h (3 Bft) 95,74 %
28.08.2020 13:10 20,6 C 22,2 C 20,0 C 66 % 1002,7 hPa 0,0 l/m 2 min 0 min 481 W/m 29,0 km/h (5 Bft) 97,87 %
28.08.2020 13:12 20,6 C 22,2 C 20,0 C 66 % 1002,7 hPa 0,0 l/m 2 min 0 min 367 W/m 35,4 km/h (5 Bft) 97,87 %
28.08.2020 13:14 20,6 C 22,8 C 20,0 C 67 % 1002,5 hPa 0,0 l/m 2 min 0 min 404 W/m 19,3 km/h (3 Bft) 97,87 %
28.08.2020 13:16 20,6 C 22,2 C 20,0 C 67 % 1002,6 hPa 0,0 l/m 2 min 0 min 485 W/m 22,5 km/h (4 Bft) 93,48 %
28.08.2020 13:18 20,6 C 21,7 C 20,0 C 66 % 1002,6 hPa 0,0 l/m 2 min 0 min 513 W/m 38,6 km/h (5 Bft) 97,87 %
28.08.2020 13:20 20,6 C 22,2 C 20,0 C 66 % 1002,6 hPa 0,0 l/m 2 min 0 min 559 W/m 38,6 km/h (5 Bft) 97,87 %
28.08.2020 13:22 20,6 C 22,2 C 20,0 C 66 % 1002,6 hPa 0,0 l/m 2 min 0 min 603 W/m 29,0 km/h (5 Bft) 97,87 %
28.08.2020 13:24 20,6 C 22,8 C 20,0 C 66 % 1002,6 hPa 0,0 l/m 2 min 0 min 443 W/m 22,5 km/h (4 Bft) 100,00 %
28.08.2020 13:26 20,6 C 22,8 C 20,0 C 66 % 1002,5 hPa 0,0 l/m 2 min 0 min 446 W/m 22,5 km/h (4 Bft) 100,00 %
28.08.2020 13:28 20,6 C 23,3 C 20,0 C 66 % 1002,5 hPa 0,0 l/m 2 min 0 min 470 W/m 16,1 km/h (3 Bft) 97,87 %
28.08.2020 13:30 20,7 C 23,9 C 20,6 C 67 % 1002,5 hPa 0,0 l/m 2 min 0 min 541 W/m 12,9 km/h (3 Bft) 100,00 %
28.08.2020 13:32 20,7 C 23,3 C 20,0 C 67 % 1002,5 hPa 0,0 l/m 0 min 0 min 300 W/m 16,1 km/h (3 Bft) 100,00 %
28.08.2020 13:34 20,7 C 22,2 C 20,0 C 67 % 1002,5 hPa 0,0 l/m 0 min 0 min 320 W/m 19,3 km/h (3 Bft) 100,00 %
28.08.2020 13:36 20,7 C 22,2 C 20,0 C 66 % 1002,4 hPa 0,0 l/m 0 min 0 min 320 W/m 19,3 km/h (3 Bft) 100,00 %
28.08.2020 13:38 20,7 C 21,1 C 20,0 C 65 % 1002,6 hPa 0,0 l/m 0 min 0 min 322 W/m 25,7 km/h (4 Bft) 97,83 %
28.08.2020 13:40 20,7 C 21,1 C 20,0 C 65 % 1002,6 hPa 0,0 l/m 0 min 0 min 289 W/m 32,2 km/h (5 Bft) 100,00 %
28.08.2020 13:42 20,7 C 21,1 C 20,0 C 65 % 1002,5 hPa 0,0 l/m 0 min 0 min 294 W/m 16,1 km/h (3 Bft) 97,87 %
28.08.2020 13:44 20,6 C 21,7 C 20,0 C 65 % 1002,5 hPa 0,0 l/m 0 min 0 min 346 W/m 16,1 km/h (3 Bft) 100,00 %
28.08.2020 13:46 20,6 C 21,7 C 20,0 C 66 % 1002,4 hPa 0,0 l/m 0 min 0 min 348 W/m 19,3 km/h (3 Bft) 100,00 %
28.08.2020 13:48 20,6 C 21,1 C 20,0 C 65 % 1002,5 hPa 0,0 l/m 0 min 0 min 295 W/m 29,0 km/h (5 Bft) 100,00 %
28.08.2020 13:50 20,6 C 21,1 C 20,0 C 65 % 1002,5 hPa 0,0 l/m 0 min 0 min 327 W/m 29,0 km/h (5 Bft) 100,00 %
28.08.2020 13:52 20,6 C 21,7 C 20,0 C 65 % 1002,4 hPa 0,0 l/m 2 min 0 min 364 W/m 25,7 km/h (4 Bft) 100,00 %
28.08.2020 13:54 20,6 C 22,2 C 20,0 C 66 % 1002,5 hPa 0,0 l/m 2 min 0 min 393 W/m 22,5 km/h (4 Bft) 100,00 %
28.08.2020 13:56 20,6 C 23,3 C 20,0 C 65 % 1002,4 hPa 0,0 l/m 2 min 0 min 469 W/m 19,3 km/h (3 Bft) 97,87 %
28.08.2020 13:58 20,6 C 22,2 C 20,0 C 65 % 1002,4 hPa 0,0 l/m 2 min 0 min 458 W/m 29,0 km/h (5 Bft) 97,87 %
28.08.2020 14:00 20,6 C 22,2 C 20,0 C 65 % 1002,4 hPa 0,0 l/m 2 min 0 min 402 W/m 29,0 km/h (5 Bft) 100,00 %
28.08.2020 14:02 20,6 C 23,3 C 20,6 C 65 % 1002,3 hPa 0,0 l/m 2 min 0 min 570 W/m 29,0 km/h (5 Bft) 100,00 %
28.08.2020 14:04 20,7 C 24,4 C 21,1 C 66 % 1002,4 hPa 0,0 l/m 2 min 0 min 733 W/m 19,3 km/h (3 Bft) 100,00 %
28.08.2020 14:06 20,7 C 25,0 C 22,8 C 65 % 1002,3 hPa 0,0 l/m 2 min 0 min 983 W/m 22,5 km/h (4 Bft) 100,00 %
28.08.2020 14:08 20,8 C 25,0 C 22,8 C 65 % 1002,2 hPa 0,0 l/m 2 min 0 min 986 W/m 19,3 km/h (3 Bft) 100,00 %
28.08.2020 14:10 20,9 C 25,0 C 22,8 C 65 % 1002,1 hPa 0,0 l/m 2 min 0 min 822 W/m 25,7 km/h (4 Bft) 97,87 %
28.08.2020 14:12 21,1 C 26,1 C 23,9 C 65 % 1002,1 hPa 0,0 l/m 2 min 0 min 725 W/m 16,1 km/h (3 Bft) 100,00 %
28.08.2020 14:14 21,1 C 26,1 C 23,9 C 65 % 1002,1 hPa 0,0 l/m 2 min 0 min 790 W/m 12,9 km/h (3 Bft) 100,00 %
28.08.2020 14:16 21,3 C 25,0 C 22,8 C 65 % 1002,0 hPa 0,0 l/m 2 min 0 min 571 W/m 22,5 km/h (4 Bft) 97,87 %
28.08.2020 14:18 21,4 C 26,1 C 22,2 C 64 % 1002,1 hPa 0,0 l/m 2 min 0 min 485 W/m 12,9 km/h (3 Bft) 100,00 %
28.08.2020 14:20 21,5 C 25,6 C 21,7 C 63 % 1002,0 hPa 0,0 l/m 2 min 0 min 831 W/m 22,5 km/h (4 Bft) 100,00 %
28.08.2020 14:22 21,6 C 25,0 C 21,7 C 63 % 1001,9 hPa 0,0 l/m 2 min 0 min 418 W/m 12,9 km/h (3 Bft) 100,00 %
28.08.2020 14:24 21,7 C 26,1 C 21,7 C 63 % 1001,9 hPa 0,0 l/m 2 min 0 min 457 W/m 25,7 km/h (4 Bft) 100,00 %
28.08.2020 14:26 21,7 C 24,4 C 21,7 C 61 % 1001,9 hPa 0,0 l/m 2 min 0 min 895 W/m 29,0 km/h (5 Bft) 100,00 %
28.08.2020 14:28 21,8 C 23,9 C 21,1 C 61 % 1001,9 hPa 0,0 l/m 0 min 0 min 338 W/m 25,7 km/h (4 Bft) 100,00 %
28.08.2020 14:30 21,8 C 22,8 C 21,1 C 61 % 1002,0 hPa 0,0 l/m 0 min 0 min 335 W/m 32,2 km/h (5 Bft) 100,00 %
28.08.2020 14:32 21,8 C 22,2 C 20,6 C 61 % 1001,9 hPa 0,0 l/m 0 min 0 min 277 W/m 29,0 km/h (5 Bft) 100,00 %
28.08.2020 14:34 21,8 C 22,2 C 20,6 C 61 % 1002,1 hPa 0,0 l/m 0 min 0 min 325 W/m 22,5 km/h (4 Bft) 100,00 %
28.08.2020 14:36 21,7 C 23,3 C 20,6 C 61 % 1001,7 hPa 0,0 l/m 2 min 0 min 532 W/m 25,7 km/h (4 Bft) 97,83 %
28.08.2020 14:38 21,7 C 23,3 C 21,1 C 61 % 1001,8 hPa 0,0 l/m 2 min 0 min 670 W/m 25,7 km/h (4 Bft) 100,00 %
28.08.2020 14:40 21,7 C 22,8 C 21,1 C 61 % 1001,8 hPa 0,0 l/m 2 min 0 min 586 W/m 29,0 km/h (5 Bft) 100,00 %
28.08.2020 14:42 21,7 C 22,2 C 20,6 C 61 % 1001,7 hPa 0,0 l/m 2 min 0 min 399 W/m 29,0 km/h (5 Bft) 100,00 %
28.08.2020 14:44 21,7 C 22,2 C 20,6 C 61 % 1001,7 hPa 0,0 l/m 2 min 0 min 355 W/m 22,5 km/h (4 Bft) 100,00 %
28.08.2020 14:46 21,6 C 22,8 C 20,6 C 62 % 1001,6 hPa 0,0 l/m 2 min 0 min 381 W/m 25,7 km/h (4 Bft) 100,00 %
28.08.2020 14:48 21,6 C 22,8 C 20,6 C 62 % 1001,6 hPa 0,0 l/m 2 min 0 min 430 W/m 25,7 km/h (4 Bft) 100,00 %
28.08.2020 14:50 21,6 C 22,8 C 20,6 C 62 % 1001,6 hPa 0,0 l/m 2 min 0 min 429 W/m 22,5 km/h (4 Bft) 100,00 %
28.08.2020 14:52 21,6 C 22,8 C 20,6 C 62 % 1001,6 hPa 0,0 l/m 2 min 0 min 428 W/m 12,9 km/h (3 Bft) 100,00 %
28.08.2020 14:54 21,6 C 22,8 C 20,6 C 63 % 1001,5 hPa 0,0 l/m 2 min 0 min 395 W/m 22,5 km/h (4 Bft) 100,00 %
28.08.2020 14:56 21,6 C 22,8 C 20,6 C 63 % 1001,6 hPa 0,0 l/m 2 min 0 min 394 W/m 19,3 km/h (3 Bft) 100,00 %
28.08.2020 14:58 21,6 C 22,8 C 20,6 C 63 % 1001,5 hPa 0,0 l/m 0 min 0 min 251 W/m 16,1 km/h (3 Bft) 100,00 %
28.08.2020 15:00 21,6 C 22,2 C 20,6 C 62 % 1001,5 hPa 0,0 l/m 0 min 0 min 254 W/m 16,1 km/h (3 Bft) 100,00 %
28.08.2020 15:02 21,6 C 22,8 C 20,6 C 62 % 1001,5 hPa 0,0 l/m 2 min 0 min 367 W/m 22,5 km/h (4 Bft) 100,00 %
28.08.2020 15:04 21,6 C 22,8 C 20,6 C 61 % 1001,5 hPa 0,0 l/m 2 min 0 min 383 W/m 19,3 km/h (3 Bft) 100,00 %
28.08.2020 15:06 21,6 C 23,3 C 20,6 C 61 % 1001,4 hPa 0,0 l/m 2 min 0 min 485 W/m 22,5 km/h (4 Bft) 100,00 %
28.08.2020 15:08 21,6 C 22,8 C 20,6 C 61 % 1001,4 hPa 0,0 l/m 2 min 0 min 356 W/m 22,5 km/h (4 Bft) 97,87 %
28.08.2020 15:10 21,6 C 22,2 C 20,6 C 61 % 1001,4 hPa 0,0 l/m 0 min 0 min 210 W/m 16,1 km/h (3 Bft) 95,74 %
28.08.2020 15:12 21,6 C 22,2 C 20,6 C 61 % 1001,4 hPa 0,0 l/m 0 min 0 min 237 W/m 16,1 km/h (3 Bft) 93,48 %
28.08.2020 15:14 21,6 C 22,8 C 20,6 C 62 % 1001,4 hPa 0,0 l/m 2 min 0 min 380 W/m 12,9 km/h (3 Bft) 95,74 %
28.08.2020 15:16 21,6 C 23,3 C 20,6 C 61 % 1001,3 hPa 0,0 l/m 2 min 0 min 541 W/m 22,5 km/h (4 Bft) 93,62 %
28.08.2020 15:18 21,7 C 23,9 C 21,1 C 61 % 1001,3 hPa 0,0 l/m 2 min 0 min 561 W/m 19,3 km/h (3 Bft) 93,62 %
28.08.2020 15:20 21,7 C 23,9 C 21,1 C 62 % 1001,3 hPa 0,0 l/m 2 min 0 min 561 W/m 19,3 km/h (3 Bft) 95,74 %
28.08.2020 15:22 21,7 C 25,0 C 21,1 C 61 % 1001,3 hPa 0,0 l/m 2 min 0 min 603 W/m 25,7 km/h (4 Bft) 93,48 %
28.08.2020 15:24 21,8 C 25,6 C 21,7 C 61 % 1001,2 hPa 0,0 l/m 2 min 0 min 641 W/m 19,3 km/h (3 Bft) 95,74 %
28.08.2020 15:26 21,9 C 26,1 C 21,7 C 61 % 1001,3 hPa 0,0 l/m 2 min 0 min 608 W/m 16,1 km/h (3 Bft) 97,87 %
28.08.2020 15:28 21,9 C 25,6 C 21,7 C 61 % 1001,3 hPa 0,0 l/m 2 min 0 min 606 W/m 25,7 km/h (4 Bft) 93,62 %
28.08.2020 15:30 22,0 C 25,6 C 21,7 C 60 % 1001,2 hPa 0,0 l/m 2 min 0 min 510 W/m 25,7 km/h (4 Bft) 91,49 %
28.08.2020 15:32 22,1 C 26,1 C 21,7 C 61 % 1001,1 hPa 0,0 l/m 2 min 0 min 510 W/m 19,3 km/h (3 Bft) 93,10 %
28.08.2020 15:34 22,2 C 25,6 C 21,7 C 60 % 1001,2 hPa 0,0 l/m 2 min 0 min 676 W/m 29,0 km/h (5 Bft) 91,30 %
28.08.2020 15:36 22,2 C 26,1 C 21,7 C 61 % 1001,3 hPa 0,0 l/m 2 min 0 min 655 W/m 22,5 km/h (4 Bft) 95,74 %
28.08.2020 15:38 22,3 C 26,7 C 21,7 C 61 % 1001,2 hPa 0,0 l/m 2 min 0 min 750 W/m 16,1 km/h (3 Bft) 93,62 %
28.08.2020 15:40 22,4 C 26,7 C 21,7 C 61 % 1001,2 hPa 0,0 l/m 2 min 0 min 761 W/m 29,0 km/h (5 Bft) 93,62 %
28.08.2020 15:42 22,5 C 25,0 C 21,7 C 60 % 1001,2 hPa 0,0 l/m 2 min 0 min 641 W/m 22,5 km/h (4 Bft) 91,49 %
28.08.2020 15:44 22,5 C 23,3 C 21,1 C 60 % 1001,3 hPa 0,0 l/m 0 min 0 min 269 W/m 25,7 km/h (4 Bft) 93,62 %
28.08.2020 15:46 22,5 C 23,9 C 21,1 C 60 % 1001,2 hPa 0,0 l/m 0 min 0 min 289 W/m 29,0 km/h (5 Bft) 93,48 %
28.08.2020 15:48 22,5 C 24,4 C 21,1 C 60 % 1001,2 hPa 0,0 l/m 2 min 0 min 364 W/m 25,7 km/h (4 Bft) 91,49 %
28.08.2020 15:50 22,5 C 25,6 C 21,7 C 61 % 1001,2 hPa 0,0 l/m 2 min 0 min 661 W/m 19,3 km/h (3 Bft) 89,36 %
28.08.2020 15:52 22,6 C 25,6 C 21,7 C 60 % 1001,2 hPa 0,0 l/m 2 min 0 min 676 W/m 29,0 km/h (5 Bft) 93,62 %
28.08.2020 15:54 22,6 C 25,0 C 21,7 C 60 % 1001,2 hPa 0,0 l/m 2 min 0 min 650 W/m 25,7 km/h (4 Bft) 95,74 %
28.08.2020 15:56 22,6 C 26,1 C 21,7 C 61 % 1001,1 hPa 0,0 l/m 2 min 0 min 696 W/m 16,1 km/h (3 Bft) 95,74 %
28.08.2020 15:58 22,6 C 25,6 C 21,7 C 61 % 1001,1 hPa 0,0 l/m 2 min 0 min 695 W/m 22,5 km/h (4 Bft) 95,65 %
28.08.2020 16:00 22,7 C 25,6 C 21,7 C 60 % 1001,0 hPa 0,0 l/m 2 min 0 min 435 W/m 19,3 km/h (3 Bft) 97,87 %
28.08.2020 16:02 22,7 C 25,6 C 21,7 C 61 % 1001,0 hPa 0,0 l/m 2 min 0 min 408 W/m 19,3 km/h (3 Bft) 93,75 %
28.08.2020 16:04 22,7 C 25,6 C 21,7 C 60 % 1001,0 hPa 0,0 l/m 2 min 0 min 679 W/m 22,5 km/h (4 Bft) 97,87 %
28.08.2020 16:06 22,7 C 25,6 C 21,7 C 60 % 1001,0 hPa 0,0 l/m 2 min 0 min 602 W/m 22,5 km/h (4 Bft) 97,83 %
28.08.2020 16:08 22,7 C 26,1 C 21,7 C 60 % 1000,8 hPa 0,0 l/m 2 min 0 min 657 W/m 16,1 km/h (3 Bft) 97,87 %
28.08.2020 16:10 22,8 C 27,2 C 21,7 C 61 % 1000,9 hPa 0,0 l/m 2 min 0 min 738 W/m 19,3 km/h (3 Bft) 97,87 %
28.08.2020 16:12 22,8 C 27,2 C 22,2 C 60 % 1000,8 hPa 0,0 l/m 2 min 0 min 697 W/m 22,5 km/h (4 Bft) 95,74 %
28.08.2020 16:14 22,8 C 26,7 C 22,8 C 59 % 1000,8 hPa 0,0 l/m 2 min 0 min 674 W/m 16,1 km/h (3 Bft) 97,87 %
28.08.2020 16:16 22,9 C 27,8 C 22,8 C 60 % 1000,7 hPa 0,0 l/m 2 min 0 min 706 W/m 12,9 km/h (3 Bft) 97,87 %
28.08.2020 16:18 23,0 C 28,3 C 22,8 C 59 % 1000,7 hPa 0,0 l/m 2 min 0 min 709 W/m 19,3 km/h (3 Bft) 95,65 %
28.08.2020 16:20 23,1 C 27,2 C 22,8 C 58 % 1000,7 hPa 0,0 l/m 2 min 0 min 679 W/m 22,5 km/h (4 Bft) 97,87 %
28.08.2020 16:22 23,2 C 26,7 C 22,2 C 58 % 1000,6 hPa 0,0 l/m 2 min 0 min 677 W/m 12,9 km/h (3 Bft) 97,87 %
28.08.2020 16:24 23,2 C 27,2 C 22,2 C 58 % 1000,7 hPa 0,0 l/m 2 min 0 min 676 W/m 22,5 km/h (4 Bft) 100,00 %
28.08.2020 16:26 23,2 C 26,7 C 22,2 C 58 % 1000,6 hPa 0,0 l/m 2 min 0 min 597 W/m 25,7 km/h (4 Bft) 95,74 %
28.08.2020 16:28 23,3 C 26,1 C 22,2 C 58 % 1000,6 hPa 0,0 l/m 2 min 0 min 493 W/m 25,7 km/h (4 Bft) 100,00 %
28.08.2020 16:30 23,3 C 26,1 C 22,2 C 57 % 1000,6 hPa 0,0 l/m 2 min 0 min 592 W/m 19,3 km/h (3 Bft) 100,00 %
28.08.2020 16:32 23,3 C 26,1 C 21,7 C 57 % 1000,6 hPa 0,0 l/m 2 min 0 min 669 W/m 29,0 km/h (5 Bft) 97,14 %
28.08.2020 16:34 23,4 C 26,1 C 22,2 C 57 % 1000,6 hPa 0,0 l/m 2 min 0 min 658 W/m 22,5 km/h (4 Bft) 100,00 %
28.08.2020 16:36 23,4 C 26,7 C 22,2 C 57 % 1000,5 hPa 0,0 l/m 2 min 0 min 661 W/m 22,5 km/h (4 Bft) 100,00 %
28.08.2020 16:38 23,4 C 25,6 C 22,2 C 56 % 1000,6 hPa 0,0 l/m 2 min 0 min 628 W/m 32,2 km/h (5 Bft) 100,00 %
28.08.2020 16:40 23,4 C 26,1 C 22,2 C 56 % 1000,6 hPa 0,0 l/m 2 min 0 min 617 W/m 25,7 km/h (4 Bft) 100,00 %
28.08.2020 16:42 23,4 C 26,1 C 22,2 C 56 % 1000,6 hPa 0,0 l/m 2 min 0 min 660 W/m 19,3 km/h (3 Bft) 100,00 %
28.08.2020 16:44 23,4 C 26,1 C 22,2 C 55 % 1000,5 hPa 0,0 l/m 2 min 0 min 653 W/m 22,5 km/h (4 Bft) 100,00 %
28.08.2020 16:46 23,4 C 26,1 C 22,2 C 56 % 1000,6 hPa 0,0 l/m 2 min 0 min 639 W/m 22,5 km/h (4 Bft) 100,00 %
28.08.2020 16:48 23,4 C 26,1 C 22,2 C 56 % 1000,5 hPa 0,0 l/m 2 min 0 min 634 W/m 29,0 km/h (5 Bft) 100,00 %
28.08.2020 16:50 23,4 C 26,1 C 22,2 C 56 % 1000,6 hPa 0,0 l/m 2 min 0 min 628 W/m 35,4 km/h (5 Bft) 100,00 %
28.08.2020 16:52 23,4 C 25,6 C 22,2 C 56 % 1000,6 hPa 0,0 l/m 2 min 0 min 629 W/m 35,4 km/h (5 Bft) 97,87 %
28.08.2020 16:54 23,4 C 25,6 C 22,2 C 56 % 1000,6 hPa 0,0 l/m 2 min 0 min 567 W/m 29,0 km/h (5 Bft) 97,87 %
28.08.2020 16:56 23,4 C 26,1 C 22,2 C 56 % 1000,6 hPa 0,0 l/m 2 min 0 min 592 W/m 25,7 km/h (4 Bft) 100,00 %
28.08.2020 16:58 23,4 C 25,6 C 22,8 C 56 % 1000,6 hPa 0,0 l/m 2 min 0 min 602 W/m 22,5 km/h (4 Bft) 100,00 %
28.08.2020 17:00 23,4 C 25,6 C 22,8 C 56 % 1000,5 hPa 0,0 l/m 2 min 0 min 595 W/m 22,5 km/h (4 Bft) 100,00 %
28.08.2020 17:02 23,4 C 26,1 C 23,3 C 57 % 1000,5 hPa 0,0 l/m 2 min 0 min 584 W/m 25,7 km/h (4 Bft) 100,00 %
28.08.2020 17:04 23,4 C 25,6 C 23,9 C 57 % 1000,5 hPa 0,0 l/m 2 min 0 min 611 W/m 19,3 km/h (3 Bft) 100,00 %
28.08.2020 17:06 23,4 C 25,0 C 23,3 C 57 % 1000,4 hPa 0,0 l/m 2 min 0 min 615 W/m 12,9 km/h (3 Bft) 100,00 %
28.08.2020 17:08 23,5 C 26,1 C 24,4 C 57 % 1000,4 hPa 0,0 l/m 2 min 0 min 631 W/m 29,0 km/h (5 Bft) 97,83 %
28.08.2020 17:10 23,5 C 26,1 C 23,9 C 56 % 1000,5 hPa 0,0 l/m 2 min 0 min 670 W/m 19,3 km/h (3 Bft) 100,00 %
28.08.2020 17:12 23,6 C 26,7 C 23,3 C 57 % 1000,4 hPa 0,0 l/m 2 min 0 min 659 W/m 29,0 km/h (5 Bft) 100,00 %
28.08.2020 17:14 23,6 C 25,0 C 22,8 C 56 % 1000,4 hPa 0,0 l/m 2 min 0 min 657 W/m 25,7 km/h (4 Bft) 100,00 %
28.08.2020 17:16 23,6 C 23,3 C 21,7 C 56 % 1000,4 hPa 0,0 l/m 2 min 0 min 320 W/m 19,3 km/h (3 Bft) 100,00 %
28.08.2020 17:18 23,6 C 22,8 C 21,7 C 56 % 1000,4 hPa 0,0 l/m 0 min 0 min 109 W/m 22,5 km/h (4 Bft) 100,00 %
28.08.2020 17:20 23,4 C 22,2 C 21,1 C 57 % 1000,4 hPa 0,0 l/m 0 min 0 min 105 W/m 22,5 km/h (4 Bft) 100,00 %
28.08.2020 17:22 23,4 C 21,7 C 21,1 C 57 % 1000,3 hPa 0,0 l/m 0 min 0 min 150 W/m 22,5 km/h (4 Bft) 100,00 %
28.08.2020 17:24 23,3 C 21,7 C 20,6 C 57 % 1000,3 hPa 0,0 l/m 0 min 0 min 151 W/m 16,1 km/h (3 Bft) 100,00 %
28.08.2020 17:26 23,2 C 21,7 C 20,6 C 57 % 1000,3 hPa 0,0 l/m 0 min 0 min 98 W/m 22,5 km/h (4 Bft) 100,00 %
28.08.2020 17:28 23,1 C 21,7 C 20,6 C 58 % 1000,4 hPa 0,0 l/m 0 min 0 min 145 W/m 25,7 km/h (4 Bft) 100,00 %
28.08.2020 17:30 22,9 C 22,2 C 20,6 C 58 % 1000,3 hPa 0,0 l/m 0 min 0 min 204 W/m 16,1 km/h (3 Bft) 100,00 %
28.08.2020 17:32 22,8 C 22,8 C 21,1 C 59 % 1000,3 hPa 0,0 l/m 2 min 0 min 234 W/m 19,3 km/h (3 Bft) 100,00 %
28.08.2020 17:34 22,8 C 22,2 C 21,1 C 58 % 1000,2 hPa 0,0 l/m 0 min 0 min 157 W/m 16,1 km/h (3 Bft) 100,00 %
28.08.2020 17:36 22,7 C 22,2 C 21,1 C 59 % 1000,2 hPa 0,0 l/m 0 min 0 min 137 W/m 41,8 km/h (6 Bft) 97,87 %
28.08.2020 17:38 22,7 C 23,3 C 21,1 C 59 % 1000,2 hPa 0,0 l/m 0 min 0 min 173 W/m 29,0 km/h (5 Bft) 100,00 %
28.08.2020 17:40 22,6 C 23,9 C 21,1 C 60 % 1000,2 hPa 0,0 l/m 2 min 0 min 499 W/m 16,1 km/h (3 Bft) 97,87 %
28.08.2020 17:42 22,6 C 25,0 C 21,1 C 60 % 1000,2 hPa 0,0 l/m 2 min 0 min 494 W/m 22,5 km/h (4 Bft) 97,83 %
28.08.2020 17:44 22,6 C 23,3 C 21,1 C 60 % 1000,1 hPa 0,0 l/m 2 min 0 min 518 W/m 25,7 km/h (4 Bft) 97,87 %
28.08.2020 17:46 22,7 C 22,8 C 21,1 C 60 % 1000,1 hPa 0,0 l/m 2 min 0 min 406 W/m 16,1 km/h (3 Bft) 97,87 %
28.08.2020 17:48 22,7 C 22,2 C 20,6 C 60 % 1000,2 hPa 0,0 l/m 0 min 0 min 100 W/m 16,1 km/h (3 Bft) 97,87 %
28.08.2020 17:50 22,7 C 22,8 C 20,6 C 60 % 1000,1 hPa 0,0 l/m 0 min 0 min 107 W/m 19,3 km/h (3 Bft) 97,87 %
28.08.2020 17:52 22,6 C 22,2 C 20,6 C 60 % 1000,1 hPa 0,0 l/m 2 min 0 min 317 W/m 19,3 km/h (3 Bft) 93,62 %
28.08.2020 17:54 22,6 C 21,7 C 20,6 C 60 % 1000,0 hPa 0,0 l/m 0 min 0 min 139 W/m 16,1 km/h (3 Bft) 95,65 %
28.08.2020 17:56 22,6 C 21,1 C 20,6 C 60 % 1000,1 hPa 0,0 l/m 0 min 0 min 89 W/m 19,3 km/h (3 Bft) 97,87 %
28.08.2020 17:58 22,6 C 22,2 C 20,6 C 59 % 1000,1 hPa 0,0 l/m 0 min 0 min 165 W/m 25,7 km/h (4 Bft) 97,87 %
28.08.2020 18:00 22,5 C 21,7 C 20,6 C 59 % 1000,1 hPa 0,0 l/m 2 min 0 min 241 W/m 19,3 km/h (3 Bft) 100,00 %
28.08.2020 18:02 22,4 C 21,1 C 20,0 C 59 % 1000,1 hPa 0,0 l/m 0 min 0 min 89 W/m 19,3 km/h (3 Bft) 95,74 %
28.08.2020 18:04 22,4 C 21,1 C 20,0 C 60 % 1000,1 hPa 0,0 l/m 0 min 0 min 65 W/m 16,1 km/h (3 Bft) 95,74 %
28.08.2020 18:08 22,3 C 20,6 C 20,0 C 60 % 1000,0 hPa 0,0 l/m 0 min 0 min 60 W/m 25,7 km/h (4 Bft) 97,87 %
28.08.2020 18:10 22,3 C 20,6 C 20,0 C 60 % 1000,1 hPa 0,0 l/m 0 min 0 min 63 W/m 19,3 km/h (3 Bft) 95,74 %
28.08.2020 18:12 22,2 C 21,1 C 20,0 C 60 % 1000,1 hPa 0,0 l/m 0 min 0 min 73 W/m 12,9 km/h (3 Bft) 95,74 %
28.08.2020 18:14 22,2 C 21,1 C 20,0 C 60 % 1000,1 hPa 0,0 l/m 0 min 0 min 84 W/m 16,1 km/h (3 Bft) 97,83 %
28.08.2020 18:16 22,1 C 21,7 C 20,0 C 60 % 1000,1 hPa 0,0 l/m 2 min 0 min 172 W/m 16,1 km/h (3 Bft) 97,87 %
28.08.2020 18:18 22,1 C 22,2 C 20,0 C 61 % 1000,0 hPa 0,0 l/m 2 min 0 min 197 W/m 19,3 km/h (3 Bft) 95,74 %
28.08.2020 18:20 22,1 C 22,8 C 20,6 C 61 % 1000,0 hPa 0,0 l/m 2 min 0 min 312 W/m 16,1 km/h (3 Bft) 95,74 %
28.08.2020 18:22 22,1 C 22,8 C 20,6 C 61 % 1000,0 hPa 0,0 l/m 2 min 0 min 248 W/m 12,9 km/h (3 Bft) 91,49 %
28.08.2020 18:24 22,1 C 22,2 C 20,6 C 61 % 999,9 hPa 0,0 l/m 0 min 0 min 148 W/m 16,1 km/h (3 Bft) 97,87 %
28.08.2020 18:26 22,1 C 22,2 C 20,6 C 61 % 999,9 hPa 0,0 l/m 0 min 0 min 124 W/m 16,1 km/h (3 Bft) 97,83 %
28.08.2020 18:28 22,1 C 21,7 C 20,6 C 60 % 999,9 hPa 0,0 l/m 0 min 0 min 119 W/m 22,5 km/h (4 Bft) 93,62 %
28.08.2020 18:30 22,1 C 21,7 C 20,6 C 60 % 999,9 hPa 0,0 l/m 0 min 0 min 116 W/m 19,3 km/h (3 Bft) 95,74 %
28.08.2020 18:32 22,1 C 21,7 C 20,6 C 60 % 999,9 hPa 0,0 l/m 0 min 0 min 118 W/m 29,0 km/h (5 Bft) 95,74 %
28.08.2020 18:34 22,1 C 21,7 C 20,6 C 59 % 999,9 hPa 0,0 l/m 0 min 0 min 122 W/m 22,5 km/h (4 Bft) 95,74 %
28.08.2020 18:36 22,1 C 21,7 C 20,6 C 59 % 999,9 hPa 0,0 l/m 0 min 0 min 107 W/m 22,5 km/h (4 Bft) 100,00 %
28.08.2020 18:38 22,1 C 21,7 C 20,6 C 59 % 999,9 hPa 0,0 l/m 0 min 0 min 124 W/m 19,3 km/h (3 Bft) 97,87 %
28.08.2020 18:40 22,1 C 21,7 C 20,6 C 58 % 999,9 hPa 0,0 l/m 0 min 0 min 132 W/m 25,7 km/h (4 Bft) 93,62 %
28.08.2020 18:42 22,1 C 21,7 C 20,6 C 58 % 999,8 hPa 0,0 l/m 0 min 0 min 130 W/m 22,5 km/h (4 Bft) 95,65 %
28.08.2020 18:44 22,1 C 21,7 C 20,6 C 58 % 999,8 hPa 0,0 l/m 0 min 0 min 104 W/m 22,5 km/h (4 Bft) 95,74 %
28.08.2020 18:46 22,1 C 21,1 C 20,6 C 58 % 999,7 hPa 0,0 l/m 0 min 0 min 72 W/m 22,5 km/h (4 Bft) 93,62 %
28.08.2020 18:48 22,1 C 21,1 C 20,6 C 58 % 999,7 hPa 0,0 l/m 0 min 0 min 60 W/m 25,7 km/h (4 Bft) 95,74 %
28.08.2020 18:50 22,0 C 20,6 C 20,6 C 58 % 999,7 hPa 0,0 l/m 0 min 0 min 46 W/m 29,0 km/h (5 Bft) 93,62 %
28.08.2020 18:52 21,9 C 20,6 C 20,0 C 58 % 999,7 hPa 0,0 l/m 0 min 0 min 33 W/m 19,3 km/h (3 Bft) 93,48 %
28.08.2020 18:54 21,9 C 20,6 C 20,0 C 58 % 999,9 hPa 0,0 l/m 0 min 0 min 26 W/m 16,1 km/h (3 Bft) 95,74 %
28.08.2020 18:56 21,9 C 20,6 C 20,0 C 59 % 999,8 hPa 0,0 l/m 0 min 0 min 28 W/m 16,1 km/h (3 Bft) 95,74 %
28.08.2020 18:58 21,8 C 20,6 C 20,0 C 58 % 999,8 hPa 0,0 l/m 0 min 0 min 35 W/m 22,5 km/h (4 Bft) 93,62 %
28.08.2020 19:00 21,8 C 20,6 C 20,0 C 59 % 999,7 hPa 0,0 l/m 0 min 0 min 37 W/m 16,1 km/h (3 Bft) 95,74 %
28.08.2020 19:02 21,8 C 20,6 C 20,0 C 59 % 999,7 hPa 0,0 l/m 0 min 0 min 31 W/m 12,9 km/h (3 Bft) 94,34 %
28.08.2020 19:04 21,7 C 20,0 C 20,0 C 59 % 999,7 hPa 0,0 l/m 0 min 0 min 27 W/m 19,3 km/h (3 Bft) 95,74 %
28.08.2020 19:06 21,7 C 20,0 C 19,4 C 59 % 999,7 hPa 0,0 l/m 0 min 0 min 23 W/m 12,9 km/h (3 Bft) 95,65 %
28.08.2020 19:08 21,7 C 20,0 C 19,4 C 59 % 999,6 hPa 0,0 l/m 0 min 0 min 18 W/m 25,7 km/h (4 Bft) 95,74 %
28.08.2020 19:10 21,6 C 20,0 C 19,4 C 59 % 999,6 hPa 0,0 l/m 0 min 0 min 16 W/m 16,1 km/h (3 Bft) 97,87 %
28.08.2020 19:12 21,6 C 20,0 C 19,4 C 59 % 999,6 hPa 0,0 l/m 0 min 0 min 19 W/m 16,1 km/h (3 Bft) 97,87 %
28.08.2020 19:14 21,5 C 20,0 C 19,4 C 59 % 999,6 hPa 0,0 l/m 0 min 0 min 19 W/m 19,3 km/h (3 Bft) 97,87 %
28.08.2020 19:16 21,4 C 20,0 C 19,4 C 59 % 999,7 hPa 0,0 l/m 0 min 0 min 19 W/m 22,5 km/h (4 Bft) 97,87 %
28.08.2020 19:18 21,4 C 20,0 C 19,4 C 59 % 999,7 hPa 0,0 l/m 0 min 0 min 15 W/m 16,1 km/h (3 Bft) 93,48 %
28.08.2020 19:20 21,3 C 20,0 C 19,4 C 59 % 999,8 hPa 0,0 l/m 0 min 0 min 11 W/m 16,1 km/h (3 Bft) 97,87 %
28.08.2020 19:22 21,3 C 20,0 C 19,4 C 60 % 1000,0 hPa 0,0 l/m 0 min 0 min 7 W/m 22,5 km/h (4 Bft) 97,87 %
28.08.2020 19:24 21,3 C 19,4 C 19,4 C 61 % 1000,1 hPa 0,0 l/m 0 min 0 min 7 W/m 16,1 km/h (3 Bft) 95,74 %
28.08.2020 19:26 21,2 C 18,3 C 19,4 C 64 % 1000,2 hPa 0,0 l/m 0 min 2 min 7 W/m 19,3 km/h (3 Bft) 89,36 %
28.08.2020 19:28 21,0 C 17,8 C 18,9 C 66 % 1000,2 hPa 0,0 l/m 0 min 2 min 7 W/m 16,1 km/h (3 Bft) 97,87 %
28.08.2020 19:30 20,8 C 17,8 C 18,3 C 67 % 1000,2 hPa 0,0 l/m 0 min 2 min 5 W/m 16,1 km/h (3 Bft) 97,83 %
28.08.2020 19:32 20,5 C 16,7 C 17,8 C 69 % 1000,4 hPa 0,0 l/m 0 min 2 min 6 W/m 32,2 km/h (5 Bft) 97,92 %
28.08.2020 19:34 20,3 C 16,7 C 17,2 C 71 % 1000,4 hPa 0,0 l/m 0 min 2 min 10 W/m 19,3 km/h (3 Bft) 100,00 %
28.08.2020 19:36 20,1 C 16,1 C 16,7 C 72 % 1000,6 hPa 0,0 l/m 0 min 0 min 14 W/m 9,7 km/h (2 Bft) 100,00 %
28.08.2020 19:38 19,8 C 16,1 C 16,7 C 73 % 1000,8 hPa 0,0 l/m 0 min 0 min 18 W/m 6,4 km/h (2 Bft) 97,87 %
28.08.2020 19:40 19,6 C 16,1 C 16,7 C 74 % 1000,7 hPa 0,0 l/m 0 min 0 min 18 W/m 9,7 km/h (2 Bft) 100,00 %
28.08.2020 19:42 19,4 C 16,1 C 16,7 C 74 % 1000,6 hPa 0,0 l/m 0 min 0 min 17 W/m 6,4 km/h (2 Bft) 100,00 %
28.08.2020 19:44 19,3 C 16,1 C 16,1 C 74 % 1000,6 hPa 0,0 l/m 0 min 0 min 15 W/m 9,7 km/h (2 Bft) 100,00 %
28.08.2020 19:46 19,1 C 16,1 C 16,1 C 75 % 1000,5 hPa 0,0 l/m 0 min 0 min 14 W/m 6,4 km/h (2 Bft) 97,87 %
28.08.2020 19:48 18,9 C 15,6 C 16,1 C 75 % 1000,5 hPa 0,0 l/m 0 min 0 min 12 W/m 6,4 km/h (2 Bft) 100,00 %
28.08.2020 19:50 18,8 C 15,6 C 16,1 C 76 % 1000,5 hPa 0,0 l/m 0 min 0 min 11 W/m 6,4 km/h (2 Bft) 100,00 %
28.08.2020 19:52 18,7 C 15,6 C 16,1 C 76 % 1000,6 hPa 0,0 l/m 0 min 0 min 10 W/m 6,4 km/h (2 Bft) 100,00 %
28.08.2020 19:54 18,5 C 15,6 C 16,1 C 77 % 1000,6 hPa 0,0 l/m 0 min 0 min 9 W/m 3,2 km/h (1 Bft) 100,00 %
28.08.2020 19:56 18,4 C 15,6 C 16,1 C 77 % 1000,5 hPa 0,0 l/m 0 min 0 min 9 W/m 0,0 km/h (0 Bft) 100,00 %
28.08.2020 19:58 18,3 C 15,6 C 16,1 C 77 % 1000,6 hPa 0,0 l/m 0 min 0 min 9 W/m 0,0 km/h (0 Bft) 100,00 %
28.08.2020 20:00 18,2 C 15,6 C 16,1 C 78 % 1000,6 hPa 0,0 l/m 0 min 0 min 10 W/m 3,2 km/h (1 Bft) 100,00 %
28.08.2020 20:02 18,2 C 15,6 C 16,1 C 78 % 1000,5 hPa 0,0 l/m 0 min 0 min 11 W/m 3,2 km/h (1 Bft) 100,00 %
28.08.2020 20:04 18,1 C 15,6 C 15,6 C 78 % 1000,5 hPa 0,0 l/m 0 min 0 min 9 W/m 3,2 km/h (1 Bft) 100,00 %
28.08.2020 20:06 17,9 C 15,6 C 15,6 C 78 % 1000,5 hPa 0,0 l/m 0 min 0 min 8 W/m 9,7 km/h (2 Bft) 100,00 %
28.08.2020 20:08 17,9 C 15,6 C 15,6 C 79 % 1000,5 hPa 0,0 l/m 0 min 0 min 7 W/m 3,2 km/h (1 Bft) 100,00 %
28.08.2020 20:10 17,8 C 15,6 C 15,6 C 79 % 1000,6 hPa 0,0 l/m 0 min 0 min 6 W/m 6,4 km/h (2 Bft) 100,00 %
28.08.2020 20:12 17,7 C 15,6 C 15,6 C 79 % 1000,6 hPa 0,0 l/m 0 min 0 min 5 W/m 3,2 km/h (1 Bft) 97,87 %
28.08.2020 20:14 17,7 C 15,0 C 15,6 C 79 % 1000,6 hPa 0,0 l/m 0 min 0 min 1 W/m 0,0 km/h (0 Bft) 100,00 %
28.08.2020 20:16 17,6 C 15,0 C 15,6 C 79 % 1000,6 hPa 0,0 l/m 0 min 0 min 0 W/m 3,2 km/h (1 Bft) 100,00 %
28.08.2020 20:18 17,6 C 15,6 C 15,6 C 80 % 1000,6 hPa 0,0 l/m 0 min 0 min 0 W/m 3,2 km/h (1 Bft) 100,00 %
28.08.2020 20:20 17,5 C 15,6 C 15,6 C 80 % 1000,6 hPa 0,0 l/m 0 min 0 min 0 W/m 0,0 km/h (0 Bft) 97,87 %
28.08.2020 20:22 17,4 C 15,6 C 15,6 C 80 % 1000,7 hPa 0,0 l/m 0 min 0 min 0 W/m 0,0 km/h (0 Bft) 100,00 %
28.08.2020 20:24 17,3 C 15,6 C 15,6 C 80 % 1000,6 hPa 0,0 l/m 0 min 0 min 0 W/m 0,0 km/h (0 Bft) 100,00 %
28.08.2020 20:26 17,3 C 15,6 C 15,6 C 80 % 1000,6 hPa 0,0 l/m 0 min 0 min 0 W/m 0,0 km/h (0 Bft) 97,83 %
28.08.2020 20:28 17,3 C 15,6 C 15,6 C 81 % 1000,6 hPa 0,0 l/m 0 min 0 min 0 W/m 0,0 km/h (0 Bft) 97,87 %
28.08.2020 20:30 17,2 C 15,6 C 15,6 C 80 % 1000,7 hPa 0,0 l/m 0 min 0 min 0 W/m 0,0 km/h (0 Bft) 95,74 %
28.08.2020 20:32 17,2 C 15,6 C 15,6 C 80 % 1000,6 hPa 0,0 l/m 0 min 0 min 0 W/m 0,0 km/h (0 Bft) 97,87 %
28.08.2020 20:34 17,1 C 15,6 C 15,6 C 81 % 1000,6 hPa 0,0 l/m 0 min 0 min 0 W/m 0,0 km/h (0 Bft) 97,87 %
28.08.2020 20:36 17,1 C 15,6 C 15,6 C 80 % 1000,6 hPa 0,0 l/m 0 min 0 min 0 W/m 0,0 km/h (0 Bft) 97,87 %
28.08.2020 20:38 17,1 C 15,6 C 15,6 C 80 % 1000,6 hPa 0,0 l/m 0 min 0 min 0 W/m 0,0 km/h (0 Bft) 97,44 %
28.08.2020 20:40 17,0 C 15,6 C 16,1 C 80 % 1000,6 hPa 0,0 l/m 0 min 0 min 0 W/m 0,0 km/h (0 Bft) 97,87 %
28.08.2020 20:42 16,9 C 15,6 C 16,1 C 80 % 1000,7 hPa 0,0 l/m 0 min 0 min 0 W/m 0,0 km/h (0 Bft) 95,74 %
28.08.2020 20:44 16,9 C 15,6 C 15,6 C 80 % 1000,7 hPa 0,0 l/m 0 min 0 min 0 W/m 0,0 km/h (0 Bft) 97,87 %
28.08.2020 20:46 16,9 C 15,6 C 15,6 C 80 % 1000,8 hPa 0,0 l/m 0 min 0 min 0 W/m 0,0 km/h (0 Bft) 97,87 %
28.08.2020 20:48 16,8 C 15,6 C 15,6 C 80 % 1000,8 hPa 0,0 l/m 0 min 0 min 0 W/m 0,0 km/h (0 Bft) 97,87 %
28.08.2020 20:50 16,8 C 15,6 C 15,6 C 80 % 1000,8 hPa 0,0 l/m 0 min 0 min 0 W/m 0,0 km/h (0 Bft) 91,30 %
28.08.2020 20:52 16,8 C 15,6 C 15,6 C 80 % 1000,9 hPa 0,0 l/m 0 min 0 min 0 W/m 0,0 km/h (0 Bft) 91,49 %
28.08.2020 20:54 16,8 C 15,6 C 15,6 C 80 % 1000,8 hPa 0,0 l/m 0 min 0 min 0 W/m 0,0 km/h (0 Bft) 97,92 %
28.08.2020 20:56 16,7 C 15,6 C 15,6 C 80 % 1000,8 hPa 0,0 l/m 0 min 0 min 0 W/m 0,0 km/h (0 Bft) 97,87 %
28.08.2020 20:58 16,7 C 15,6 C 15,6 C 81 % 1000,8 hPa 0,0 l/m 0 min 0 min 0 W/m 0,0 km/h (0 Bft) 97,87 %
28.08.2020 21:00 16,7 C 15,6 C 15,6 C 81 % 1000,8 hPa 0,0 l/m 0 min 0 min 0 W/m 0,0 km/h (0 Bft) 97,87 %
28.08.2020 21:02 16,7 C 15,6 C 15,6 C 81 % 1000,9 hPa 0,0 l/m 0 min 0 min 0 W/m 0,0 km/h (0 Bft) 95,74 %
28.08.2020 21:04 16,7 C 15,0 C 15,6 C 81 % 1000,9 hPa 0,0 l/m 0 min 0 min 0 W/m 0,0 km/h (0 Bft) 97,87 %
28.08.2020 21:06 16,7 C 15,0 C 15,6 C 81 % 1001,0 hPa 0,0 l/m 0 min 0 min 0 W/m 0,0 km/h (0 Bft) 97,87 %
28.08.2020 21:08 16,6 C 15,6 C 15,6 C 81 % 1001,0 hPa 0,0 l/m 0 min 0 min 0 W/m 6,4 km/h (2 Bft) 95,74 %
28.08.2020 21:10 16,6 C 15,6 C 15,6 C 81 % 1001,0 hPa 0,0 l/m 0 min 0 min 0 W/m 6,4 km/h (2 Bft) 97,87 %
28.08.2020 21:12 16,6 C 15,6 C 15,6 C 81 % 1001,0 hPa 0,0 l/m 0 min 0 min 0 W/m 6,4 km/h (2 Bft) 97,87 %
28.08.2020 21:14 16,6 C 15,6 C 15,6 C 81 % 1001,0 hPa 0,0 l/m 0 min 0 min 0 W/m 9,7 km/h (2 Bft) 97,87 %
28.08.2020 21:16 16,5 C 15,6 C 15,6 C 81 % 1001,1 hPa 0,0 l/m 0 min 0 min 0 W/m 6,4 km/h (2 Bft) 100,00 %
28.08.2020 21:18 16,5 C 15,6 C 15,6 C 81 % 1001,0 hPa 0,0 l/m 0 min 0 min 0 W/m 3,2 km/h (1 Bft) 97,87 %
28.08.2020 21:20 16,5 C 15,0 C 15,6 C 81 % 1001,1 hPa 0,0 l/m 0 min 0 min 0 W/m 6,4 km/h (2 Bft) 100,00 %
28.08.2020 21:22 16,4 C 15,0 C 15,6 C 80 % 1001,1 hPa 0,0 l/m 0 min 0 min 0 W/m 3,2 km/h (1 Bft) 100,00 %
28.08.2020 21:24 16,4 C 15,0 C 15,6 C 80 % 1001,1 hPa 0,0 l/m 0 min 0 min 0 W/m 3,2 km/h (1 Bft) 100,00 %
28.08.2020 21:26 16,4 C 15,0 C 15,6 C 80 % 1001,0 hPa 0,0 l/m 0 min 0 min 0 W/m 0,0 km/h (0 Bft) 100,00 %
28.08.2020 21:28 16,4 C 15,0 C 15,0 C 80 % 1001,0 hPa 0,0 l/m 0 min 0 min 0 W/m 0,0 km/h (0 Bft) 97,87 %
28.08.2020 21:30 16,4 C 15,0 C 15,0 C 80 % 1001,0 hPa 0,0 l/m 0 min 0 min 0 W/m 0,0 km/h (0 Bft) 100,00 %
28.08.2020 21:32 16,4 C 15,0 C 15,0 C 80 % 1001,1 hPa 0,0 l/m 0 min 0 min 0 W/m 0,0 km/h (0 Bft) 95,83 %
28.08.2020 21:34 16,3 C 15,0 C 15,0 C 80 % 1001,2 hPa 0,0 l/m 0 min 0 min 0 W/m 0,0 km/h (0 Bft) 97,87 %
28.08.2020 21:36 16,3 C 15,0 C 15,0 C 80 % 1001,1 hPa 0,0 l/m 0 min 0 min 0 W/m 3,2 km/h (1 Bft) 95,74 %
28.08.2020 21:38 16,3 C 14,4 C 15,0 C 80 % 1001,1 hPa 0,0 l/m 0 min 0 min 0 W/m 0,0 km/h (0 Bft) 97,83 %
28.08.2020 21:40 16,3 C 14,4 C 15,0 C 80 % 1001,1 hPa 0,0 l/m 0 min 0 min 0 W/m 3,2 km/h (1 Bft) 95,83 %
28.08.2020 21:42 16,3 C 14,4 C 14,4 C 80 % 1001,1 hPa 0,0 l/m 0 min 0 min 0 W/m 0,0 km/h (0 Bft) 97,92 %
28.08.2020 21:44 16,2 C 14,4 C 14,4 C 80 % 1001,1 hPa 0,0 l/m 0 min 0 min 0 W/m 3,2 km/h (1 Bft) 97,87 %
28.08.2020 21:46 16,2 C 14,4 C 14,4 C 80 % 1001,1 hPa 0,0 l/m 0 min 0 min 0 W/m 0,0 km/h (0 Bft) 97,83 %
28.08.2020 21:48 16,2 C 14,4 C 14,4 C 80 % 1001,2 hPa 0,0 l/m 0 min 0 min 0 W/m 3,2 km/h (1 Bft) 97,87 %
28.08.2020 21:50 16,1 C 14,4 C 14,4 C 80 % 1001,2 hPa 0,0 l/m 0 min 0 min 0 W/m 3,2 km/h (1 Bft) 97,87 %
28.08.2020 21:52 16,1 C 14,4 C 14,4 C 80 % 1001,1 hPa 0,0 l/m 0 min 0 min 0 W/m 3,2 km/h (1 Bft) 95,83 %
28.08.2020 21:54 16,1 C 14,4 C 13,9 C 80 % 1001,2 hPa 0,0 l/m 0 min 0 min 0 W/m 0,0 km/h (0 Bft) 97,87 %
28.08.2020 21:56 16,1 C 14,4 C 13,9 C 80 % 1001,2 hPa 0,0 l/m 0 min 0 min 0 W/m 0,0 km/h (0 Bft) 95,65 %
28.08.2020 21:58 16,1 C 14,4 C 13,9 C 80 % 1001,1 hPa 0,0 l/m 0 min 0 min 0 W/m 0,0 km/h (0 Bft) 97,87 %
28.08.2020 22:00 16,1 C 14,4 C 13,9 C 80 % 1001,2 hPa 0,0 l/m 0 min 0 min 0 W/m 3,2 km/h (1 Bft) 97,87 %
28.08.2020 22:02 16,0 C 14,4 C 13,9 C 80 % 1001,2 hPa 0,0 l/m 0 min 0 min 0 W/m 6,4 km/h (2 Bft) 95,74 %
28.08.2020 22:04 15,9 C 14,4 C 14,4 C 80 % 1001,2 hPa 0,0 l/m 0 min 0 min 0 W/m 6,4 km/h (2 Bft) 93,62 %
28.08.2020 22:06 15,9 C 14,4 C 14,4 C 80 % 1001,3 hPa 0,0 l/m 0 min 0 min 0 W/m 6,4 km/h (2 Bft) 93,62 %
28.08.2020 22:08 15,9 C 14,4 C 14,4 C 80 % 1001,3 hPa 0,0 l/m 0 min 0 min 0 W/m 9,7 km/h (2 Bft) 95,45 %
28.08.2020 22:10 15,8 C 14,4 C 14,4 C 80 % 1001,3 hPa 0,0 l/m 0 min 0 min 0 W/m 6,4 km/h (2 Bft) 93,62 %
28.08.2020 22:12 15,8 C 14,4 C 14,4 C 80 % 1001,3 hPa 0,0 l/m 0 min 0 min 0 W/m 6,4 km/h (2 Bft) 95,74 %
28.08.2020 22:14 15,8 C 14,4 C 14,4 C 80 % 1001,3 hPa 0,0 l/m 0 min 0 min 0 W/m 3,2 km/h (1 Bft) 97,83 %
28.08.2020 22:16 15,8 C 14,4 C 14,4 C 80 % 1001,3 hPa 0,0 l/m 0 min 0 min 0 W/m 0,0 km/h (0 Bft) 97,87 %
28.08.2020 22:18 15,7 C 14,4 C 14,4 C 80 % 1001,3 hPa 0,0 l/m 0 min 0 min 0 W/m 0,0 km/h (0 Bft) 97,87 %
28.08.2020 22:20 15,7 C 14,4 C 14,4 C 80 % 1001,3 hPa 0,0 l/m 0 min 0 min 0 W/m 0,0 km/h (0 Bft) 97,87 %
28.08.2020 22:22 15,7 C 14,4 C 14,4 C 80 % 1001,3 hPa 0,0 l/m 0 min 0 min 0 W/m 0,0 km/h (0 Bft) 97,87 %
28.08.2020 22:24 15,7 C 14,4 C 14,4 C 80 % 1001,3 hPa 0,0 l/m 0 min 0 min 0 W/m 0,0 km/h (0 Bft) 96,00 %
28.08.2020 22:26 15,7 C 14,4 C 13,9 C 81 % 1001,2 hPa 0,0 l/m 0 min 0 min 0 W/m 0,0 km/h (0 Bft) 97,87 %
28.08.2020 22:28 15,6 C 14,4 C 13,9 C 81 % 1001,3 hPa 0,0 l/m 0 min 0 min 0 W/m 0,0 km/h (0 Bft) 97,87 %
28.08.2020 22:30 15,6 C 13,9 C 13,9 C 81 % 1001,3 hPa 0,0 l/m 0 min 0 min 0 W/m 0,0 km/h (0 Bft) 97,87 %
28.08.2020 22:32 15,6 C 13,9 C 13,9 C 81 % 1001,3 hPa 0,0 l/m 0 min 0 min 0 W/m 0,0 km/h (0 Bft) 97,83 %
28.08.2020 22:34 15,6 C 13,9 C 13,9 C 81 % 1001,3 hPa 0,0 l/m 0 min 0 min 0 W/m 0,0 km/h (0 Bft) 97,87 %
28.08.2020 22:36 15,6 C 13,9 C 13,9 C 81 % 1001,3 hPa 0,0 l/m 0 min 0 min 0 W/m 0,0 km/h (0 Bft) 97,87 %
28.08.2020 22:38 15,6 C 13,9 C 13,9 C 81 % 1001,3 hPa 0,0 l/m 0 min 0 min 0 W/m 0,0 km/h (0 Bft) 97,92 %
28.08.2020 22:40 15,6 C 13,9 C 13,9 C 81 % 1001,3 hPa 0,0 l/m 0 min 0 min 0 W/m 0,0 km/h (0 Bft) 97,62 %
28.08.2020 22:42 15,5 C 13,9 C 13,9 C 81 % 1001,4 hPa 0,0 l/m 0 min 0 min 0 W/m 0,0 km/h (0 Bft) 97,87 %
28.08.2020 22:44 15,5 C 13,9 C 13,9 C 82 % 1001,4 hPa 0,0 l/m 0 min 0 min 0 W/m 0,0 km/h (0 Bft) 97,87 %
28.08.2020 22:46 15,5 C 13,9 C 13,9 C 82 % 1001,4 hPa 0,0 l/m 0 min 0 min 0 W/m 0,0 km/h (0 Bft) 97,06 %
28.08.2020 22:48 15,4 C 13,9 C 13,9 C 82 % 1001,4 hPa 0,0 l/m 0 min 0 min 0 W/m 0,0 km/h (0 Bft) 98,39 %
28.08.2020 22:50 15,4 C 13,9 C 13,9 C 82 % 1001,4 hPa 0,0 l/m 0 min 0 min 0 W/m 0,0 km/h (0 Bft) 97,87 %
28.08.2020 22:52 15,4 C 13,9 C 13,9 C 83 % 1001,4 hPa 0,0 l/m 0 min 0 min 0 W/m 0,0 km/h (0 Bft) 95,74 %
28.08.2020 22:54 15,4 C 13,9 C 13,9 C 83 % 1001,4 hPa 0,0 l/m 0 min 0 min 0 W/m 6,4 km/h (2 Bft) 97,87 %
28.08.2020 22:56 15,4 C 13,9 C 13,9 C 83 % 1001,5 hPa 0,0 l/m 0 min 0 min 0 W/m 3,2 km/h (1 Bft) 97,87 %
28.08.2020 22:58 15,4 C 13,9 C 13,9 C 83 % 1001,5 hPa 0,0 l/m 0 min 0 min 0 W/m 3,2 km/h (1 Bft) 97,83 %
28.08.2020 23:00 15,3 C 13,9 C 13,9 C 83 % 1001,6 hPa 0,0 l/m 0 min 0 min 0 W/m 6,4 km/h (2 Bft) 97,87 %
28.08.2020 23:02 15,3 C 13,9 C 13,9 C 84 % 1001,6 hPa 0,0 l/m 0 min 0 min 0 W/m 6,4 km/h (2 Bft) 95,74 %
28.08.2020 23:04 15,3 C 13,9 C 13,9 C 84 % 1001,6 hPa 0,0 l/m 0 min 0 min 0 W/m 6,4 km/h (2 Bft) 100,00 %
28.08.2020 23:06 15,3 C 13,9 C 13,9 C 84 % 1001,5 hPa 0,0 l/m 0 min 0 min 0 W/m 6,4 km/h (2 Bft) 97,87 %
28.08.2020 23:08 15,2 C 13,9 C 13,9 C 84 % 1001,6 hPa 0,0 l/m 0 min 0 min 0 W/m 6,4 km/h (2 Bft) 97,87 %
28.08.2020 23:10 15,2 C 13,9 C 13,9 C 84 % 1001,5 hPa 0,0 l/m 0 min 0 min 0 W/m 9,7 km/h (2 Bft) 97,96 %
28.08.2020 23:12 15,2 C 13,9 C 13,9 C 85 % 1001,6 hPa 0,0 l/m 0 min 0 min 0 W/m 9,7 km/h (2 Bft) 95,74 %
28.08.2020 23:14 15,2 C 13,9 C 13,9 C 85 % 1001,5 hPa 0,0 l/m 0 min 0 min 0 W/m 9,7 km/h (2 Bft) 97,87 %
28.08.2020 23:16 15,2 C 13,9 C 13,9 C 85 % 1001,5 hPa 0,0 l/m 0 min 0 min 0 W/m 6,4 km/h (2 Bft) 54,55 %
28.08.2020 23:18 15,1 C 13,9 C 13,9 C 85 % 1001,6 hPa 0,0 l/m 0 min 0 min 0 W/m 6,4 km/h (2 Bft) 100,00 %
28.08.2020 23:20 15,1 C 13,9 C 13,9 C 85 % 1001,6 hPa 0,0 l/m 0 min 0 min 0 W/m 3,2 km/h (1 Bft) 95,74 %
28.08.2020 23:22 15,1 C 13,9 C 13,9 C 85 % 1001,5 hPa 0,0 l/m 0 min 0 min 0 W/m 3,2 km/h (1 Bft) 100,00 %
28.08.2020 23:24 15,1 C 13,9 C 13,9 C 85 % 1001,6 hPa 0,0 l/m 0 min 0 min 0 W/m 0,0 km/h (0 Bft) 100,00 %
28.08.2020 23:26 15,0 C 13,9 C 13,9 C 85 % 1001,6 hPa 0,0 l/m 0 min 0 min 0 W/m 9,7 km/h (2 Bft) 100,00 %
28.08.2020 23:28 15,0 C 13,9 C 13,9 C 85 % 1001,5 hPa 0,0 l/m 0 min 0 min 0 W/m 12,9 km/h (3 Bft) 100,00 %
28.08.2020 23:30 14,9 C 13,9 C 13,9 C 85 % 1001,6 hPa 0,0 l/m 0 min 0 min 0 W/m 6,4 km/h (2 Bft) 95,74 %
28.08.2020 23:32 14,9 C 13,9 C 13,9 C 85 % 1001,6 hPa 0,0 l/m 0 min 0 min 0 W/m 6,4 km/h (2 Bft) 100,00 %
28.08.2020 23:34 14,9 C 13,9 C 13,9 C 85 % 1001,6 hPa 0,0 l/m 0 min 0 min 0 W/m 12,9 km/h (3 Bft) 97,87 %
28.08.2020 23:36 14,9 C 13,9 C 13,9 C 85 % 1001,5 hPa 0,0 l/m 0 min 0 min 0 W/m 6,4 km/h (2 Bft) 95,83 %
28.08.2020 23:38 14,9 C 13,9 C 13,9 C 85 % 1001,5 hPa 0,0 l/m 0 min 0 min 0 W/m 6,4 km/h (2 Bft) 95,83 %
28.08.2020 23:40 14,9 C 13,9 C 13,9 C 85 % 1001,5 hPa 0,0 l/m 0 min 0 min 0 W/m 12,9 km/h (3 Bft) 95,65 %
28.08.2020 23:42 14,8 C 13,9 C 13,9 C 85 % 1001,5 hPa 0,0 l/m 0 min 0 min 0 W/m 9,7 km/h (2 Bft) 97,92 %
28.08.2020 23:44 14,8 C 13,9 C 13,9 C 85 % 1001,5 hPa 0,0 l/m 0 min 0 min 0 W/m 9,7 km/h (2 Bft) 97,87 %
28.08.2020 23:46 14,8 C 13,9 C 13,9 C 85 % 1001,6 hPa 0,0 l/m 0 min 0 min 0 W/m 6,4 km/h (2 Bft) 95,83 %
28.08.2020 23:48 14,8 C 13,9 C 13,9 C 85 % 1001,6 hPa 0,0 l/m 0 min 0 min 0 W/m 0,0 km/h (0 Bft) 97,92 %
28.08.2020 23:50 14,8 C 13,9 C 13,9 C 85 % 1001,5 hPa 0,0 l/m 0 min 0 min 0 W/m 3,2 km/h (1 Bft) 97,87 %
28.08.2020 23:52 14,8 C 13,9 C 13,9 C 85 % 1001,6 hPa 0,0 l/m 0 min 0 min 0 W/m 3,2 km/h (1 Bft) 97,87 %
28.08.2020 23:54 14,8 C 13,9 C 13,3 C 85 % 1001,6 hPa 0,0 l/m 0 min 0 min 0 W/m 6,4 km/h (2 Bft) 95,65 %
28.08.2020 23:56 14,8 C 13,9 C 13,3 C 85 % 1001,5 hPa 0,0 l/m 0 min 0 min 0 W/m 3,2 km/h (1 Bft) 93,62 %
28.08.2020 23:58 14,7 C 13,9 C 13,3 C 85 % 1001,5 hPa 0,0 l/m 0 min 0 min 0 W/m 0,0 km/h (0 Bft) 95,74 %
_ Min-Zeit 23:58 22:30 23:54 16:44 19:08 - - - - 00:00 00:02
Minimum _ 14,7 C 13,9 C 13,3 C 55 % 999,6 hPa - - - - 0,0 km/h (0 Bft) 12,50 %
_ Max-Zeit 17:12 16:18 10:06 04:38 00:00 01:30 12:08 00:38 14:08 11:04 00:00
Maximum _ 23,6 C 28,3 C 24,4 C 94 % 1006,8 hPa 0,2 l/m 4 min 2 min 986 W/m 45,1 km/h
S-SO (6 Bft)
100,00 %
Durchschnitt _ 18,5 C 18,5 C 17,4 C 77 % 1002,5 hPa #0,2 l/m #7:00 h #22 min. 332 W/m 15,5 km/h (3 Bft) 97,37 %
© 2020 W. Hausmann